Time,TemperatureF,DewpointF,PressureIn,WindDirection,WindDirectionDegrees,WindSpeedMPH,WindSpeedGustMPH,Humidity,HourlyPrecipIn,Conditions,Clouds,dailyrainin,SoftwareType,DateUTC
2013-11-10 00:02:00,38.5,29.6,30.12,SSE,149,0.0,1.0,70,0.00,,,0.00,Wunderground v.1.15,2013-11-10 05:02:00,
2013-11-10 00:03:00,38.5,29.6,30.12,SSE,149,2.0,2.0,70,0.00,,,0.00,Wunderground v.1.15,2013-11-10 05:03:00,
2013-11-10 00:04:00,38.5,29.6,30.12,SSE,149,0.0,2.0,70,0.00,,,0.00,Wunderground v.1.15,2013-11-10 05:04:00,
2013-11-10 00:05:00,38.5,29.6,30.12,SSE,149,2.0,2.0,70,0.00,,,0.00,Wunderground v.1.15,2013-11-10 05:05:00,
2013-11-10 00:07:00,38.6,29.7,30.11,SSE,149,1.0,2.0,70,0.00,,,0.00,Wunderground v.1.15,2013-11-10 05:07:00,
2013-11-10 00:08:00,38.6,29.7,30.11,SSE,149,0.0,2.0,70,0.00,,,0.00,Wunderground v.1.15,2013-11-10 05:08:00,
2013-11-10 00:09:00,38.6,29.7,30.11,SSE,149,0.0,2.0,70,0.00,,,0.00,Wunderground v.1.15,2013-11-10 05:09:00,
2013-11-10 00:10:00,38.6,29.7,30.11,SSE,149,2.0,2.0,70,0.00,,,0.00,Wunderground v.1.15,2013-11-10 05:10:00,
2013-11-10 00:13:00,38.6,29.7,30.11,SSE,149,0.0,2.0,70,0.00,,,0.00,Wunderground v.1.15,2013-11-10 05:13:00,
2013-11-10 00:14:00,38.6,29.7,30.11,SSE,149,0.0,2.0,70,0.00,,,0.00,Wunderground v.1.15,2013-11-10 05:14:00,
2013-11-10 00:16:00,38.6,29.7,30.11,SSE,149,2.0,2.0,70,0.00,,,0.00,Wunderground v.1.15,2013-11-10 05:16:00,
2013-11-10 00:18:00,38.6,29.7,30.11,SSE,149,0.0,2.0,70,0.00,,,0.00,Wunderground v.1.15,2013-11-10 05:18:00,
2013-11-10 00:19:00,38.6,29.7,30.11,SSE,149,0.0,2.0,70,0.00,,,0.00,Wunderground v.1.15,2013-11-10 05:19:00,
2013-11-10 00:20:00,38.6,29.7,30.11,SSE,149,1.0,1.0,70,0.00,,,0.00,Wunderground v.1.15,2013-11-10 05:20:00,
2013-11-10 00:21:00,38.6,29.7,30.10,SSE,149,1.0,1.0,70,0.00,,,0.00,Wunderground v.1.15,2013-11-10 05:21:00,
2013-11-10 00:22:00,38.6,29.7,30.10,SSE,149,2.0,2.0,70,0.00,,,0.00,Wunderground v.1.15,2013-11-10 05:22:00,
2013-11-10 00:24:00,38.6,29.7,30.10,SSE,149,0.0,2.0,70,0.00,,,0.00,Wunderground v.1.15,2013-11-10 05:24:00,
2013-11-10 00:25:00,38.6,29.7,30.10,SSE,149,2.0,2.0,70,0.00,,,0.00,Wunderground v.1.15,2013-11-10 05:25:00,
2013-11-10 00:26:00,38.6,29.7,30.10,SSE,149,0.0,2.0,70,0.00,,,0.00,Wunderground v.1.15,2013-11-10 05:26:00,
2013-11-10 00:27:00,38.6,29.7,30.10,SSE,149,0.0,2.0,70,0.00,,,0.00,Wunderground v.1.15,2013-11-10 05:27:00,
2013-11-10 00:28:00,38.6,30.0,30.10,SSE,149,1.0,2.0,71,0.00,,,0.00,Wunderground v.1.15,2013-11-10 05:28:00,
2013-11-10 00:32:00,38.6,30.0,30.09,SSE,149,1.0,1.0,71,0.00,,,0.00,Wunderground v.1.15,2013-11-10 05:32:00,
2013-11-10 00:33:00,38.7,30.1,30.09,SSE,149,0.0,1.0,71,0.00,,,0.00,Wunderground v.1.15,2013-11-10 05:33:00,
2013-11-10 00:35:00,38.7,30.1,30.09,SSE,149,0.0,1.0,71,0.00,,,0.00,Wunderground v.1.15,2013-11-10 05:35:00,
2013-11-10 00:38:00,38.7,30.1,30.09,SSE,149,0.0,1.0,71,0.00,,,0.00,Wunderground v.1.15,2013-11-10 05:38:00,
2013-11-10 00:39:00,38.7,30.1,30.09,SSE,149,0.0,1.0,71,0.00,,,0.00,Wunderground v.1.15,2013-11-10 05:39:00,
2013-11-10 00:40:00,38.7,30.1,30.09,SSE,149,0.0,0.0,71,0.00,,,0.00,Wunderground v.1.15,2013-11-10 05:40:00,
2013-11-10 00:43:00,38.7,30.1,30.09,SSE,149,2.0,2.0,71,0.00,,,0.00,Wunderground v.1.15,2013-11-10 05:43:00,
2013-11-10 00:46:00,38.7,30.1,30.09,SSE,149,1.0,2.0,71,0.00,,,0.00,Wunderground v.1.15,2013-11-10 05:46:00,
2013-11-10 00:48:00,38.7,30.1,30.09,SSE,149,0.0,2.0,71,0.00,,,0.00,Wunderground v.1.15,2013-11-10 05:48:00,
2013-11-10 00:50:00,38.8,30.2,30.09,SSE,149,0.0,0.0,71,0.00,,,0.00,Wunderground v.1.15,2013-11-10 05:50:00,
2013-11-10 00:51:00,38.8,30.2,30.09,SSE,149,0.0,0.0,71,0.00,,,0.00,Wunderground v.1.15,2013-11-10 05:51:00,
2013-11-10 00:52:00,38.8,30.2,30.09,SSE,149,0.0,0.0,71,0.00,,,0.00,Wunderground v.1.15,2013-11-10 05:52:00,
2013-11-10 00:55:00,38.8,30.5,30.09,SSE,149,2.0,2.0,72,0.00,,,0.00,Wunderground v.1.15,2013-11-10 05:55:00,
2013-11-10 00:56:00,38.8,30.5,30.08,SSE,149,0.0,2.0,72,0.00,,,0.00,Wunderground v.1.15,2013-11-10 05:56:00,
2013-11-10 01:00:00,38.9,30.6,30.08,SSE,149,0.0,0.0,72,0.00,,,0.00,Wunderground v.1.15,2013-11-10 06:00:00,
2013-11-10 01:01:00,38.9,30.6,30.08,SSE,149,0.0,0.0,72,0.00,,,0.00,Wunderground v.1.15,2013-11-10 06:01:00,
2013-11-10 01:02:00,38.9,30.6,30.08,SSE,149,1.0,1.0,72,0.00,,,0.00,Wunderground v.1.15,2013-11-10 06:02:00,
2013-11-10 01:03:00,38.9,30.6,30.08,SSE,149,0.0,1.0,72,0.00,,,0.00,Wunderground v.1.15,2013-11-10 06:03:00,
2013-11-10 01:05:00,38.9,30.6,30.08,SSE,149,0.0,1.0,72,0.00,,,0.00,Wunderground v.1.15,2013-11-10 06:05:00,
2013-11-10 01:09:00,38.9,30.6,30.08,SSE,149,0.0,1.0,72,0.00,,,0.00,Wunderground v.1.15,2013-11-10 06:09:00,
2013-11-10 01:10:00,38.9,30.6,30.08,SSE,149,0.0,0.0,72,0.00,,,0.00,Wunderground v.1.15,2013-11-10 06:10:00,
2013-11-10 01:11:00,38.9,30.6,30.07,SSE,149,0.0,0.0,72,0.00,,,0.00,Wunderground v.1.15,2013-11-10 06:11:00,
2013-11-10 01:12:00,39.0,30.7,30.07,SSE,149,0.0,0.0,72,0.00,,,0.00,Wunderground v.1.15,2013-11-10 06:12:00,
2013-11-10 01:13:00,39.0,30.7,30.07,SSE,149,0.0,0.0,72,0.00,,,0.00,Wunderground v.1.15,2013-11-10 06:13:00,
2013-11-10 01:17:00,39.0,30.7,30.07,SSE,149,0.0,1.0,72,0.00,,,0.00,Wunderground v.1.15,2013-11-10 06:17:00,
2013-11-10 01:18:00,39.0,30.7,30.07,SSE,149,0.0,1.0,72,0.00,,,0.00,Wunderground v.1.15,2013-11-10 06:18:00,
2013-11-10 01:19:00,39.0,30.7,30.07,SSE,149,0.0,1.0,72,0.00,,,0.00,Wunderground v.1.15,2013-11-10 06:19:00,
2013-11-10 01:22:00,39.0,30.7,30.07,SSE,149,0.0,2.0,72,0.00,,,0.00,Wunderground v.1.15,2013-11-10 06:22:00,
2013-11-10 01:23:00,39.0,30.7,30.07,SSE,149,0.0,2.0,72,0.00,,,0.00,Wunderground v.1.15,2013-11-10 06:23:00,
2013-11-10 01:24:00,39.0,30.7,30.07,SSE,149,0.0,2.0,72,0.00,,,0.00,Wunderground v.1.15,2013-11-10 06:24:00,
2013-11-10 01:25:00,39.0,30.7,30.07,SSE,149,0.0,2.0,72,0.00,,,0.00,Wunderground v.1.15,2013-11-10 06:25:00,
2013-11-10 01:26:00,39.1,30.8,30.07,SSE,149,0.0,2.0,72,0.00,,,0.00,Wunderground v.1.15,2013-11-10 06:26:00,
2013-11-10 01:27:00,39.1,30.8,30.07,SSE,149,0.0,2.0,72,0.00,,,0.00,Wunderground v.1.15,2013-11-10 06:27:00,
2013-11-10 01:29:00,39.1,30.8,30.07,SSE,149,0.0,2.0,72,0.00,,,0.00,Wunderground v.1.15,2013-11-10 06:29:00,
2013-11-10 01:31:00,39.1,30.8,30.07,SSE,149,0.0,1.0,72,0.00,,,0.00,Wunderground v.1.15,2013-11-10 06:31:00,
2013-11-10 01:33:00,39.1,30.8,30.07,SSE,149,1.0,1.0,72,0.00,,,0.00,Wunderground v.1.15,2013-11-10 06:33:00,
2013-11-10 01:36:00,39.1,30.8,30.06,SSE,149,1.0,1.0,72,0.00,,,0.00,Wunderground v.1.15,2013-11-10 06:36:00,
2013-11-10 01:37:00,39.0,30.7,30.06,SSE,149,2.0,2.0,72,0.00,,,0.00,Wunderground v.1.15,2013-11-10 06:37:00,
2013-11-10 01:41:00,39.1,31.2,30.06,SSE,149,0.0,1.0,73,0.00,,,0.00,Wunderground v.1.15,2013-11-10 06:41:00,
2013-11-10 01:42:00,39.1,31.2,30.06,SSE,149,0.0,1.0,73,0.00,,,0.00,Wunderground v.1.15,2013-11-10 06:42:00,
2013-11-10 01:43:00,39.1,31.2,30.05,SSE,149,0.0,1.0,73,0.00,,,0.00,Wunderground v.1.15,2013-11-10 06:43:00,
2013-11-10 01:44:00,39.1,31.2,30.05,SSE,149,3.0,3.0,73,0.00,,,0.00,Wunderground v.1.15,2013-11-10 06:44:00,
2013-11-10 01:45:00,39.1,31.5,30.05,SSE,149,2.0,3.0,74,0.00,,,0.00,Wunderground v.1.15,2013-11-10 06:45:00,
2013-11-10 01:46:00,39.1,31.5,30.05,SSE,149,0.0,3.0,74,0.00,,,0.00,Wunderground v.1.15,2013-11-10 06:46:00,
2013-11-10 01:48:00,39.2,31.6,30.05,SSE,149,2.0,3.0,74,0.00,,,0.00,Wunderground v.1.15,2013-11-10 06:48:00,
2013-11-10 01:49:00,39.2,31.6,30.05,SSE,149,1.0,3.0,74,0.00,,,0.00,Wunderground v.1.15,2013-11-10 06:49:00,
2013-11-10 01:50:00,39.3,31.7,30.05,SSE,149,1.0,1.0,74,0.00,,,0.00,Wunderground v.1.15,2013-11-10 06:50:00,
2013-11-10 01:51:00,39.3,31.7,30.05,SSE,149,2.0,2.0,74,0.00,,,0.00,Wunderground v.1.15,2013-11-10 06:51:00,
2013-11-10 01:54:00,39.3,31.7,30.04,SSE,148,1.0,3.0,74,0.00,,,0.00,Wunderground v.1.15,2013-11-10 06:54:00,
2013-11-10 01:55:00,39.4,31.8,30.04,SSE,149,0.0,3.0,74,0.00,,,0.00,Wunderground v.1.15,2013-11-10 06:55:00,
2013-11-10 01:56:00,39.4,31.8,30.04,SSE,149,1.0,3.0,74,0.00,,,0.00,Wunderground v.1.15,2013-11-10 06:56:00,
2013-11-10 02:00:00,39.4,31.8,30.04,SSE,148,2.0,2.0,74,0.00,,,0.00,Wunderground v.1.15,2013-11-10 07:00:00,
2013-11-10 02:01:00,39.4,31.8,30.04,SSE,149,0.0,2.0,74,0.00,,,0.00,Wunderground v.1.15,2013-11-10 07:01:00,
2013-11-10 02:06:00,39.5,31.9,30.04,SSE,148,0.0,2.0,74,0.00,,,0.00,Wunderground v.1.15,2013-11-10 07:06:00,
2013-11-10 02:11:00,39.5,32.2,30.03,SSE,148,0.0,1.0,75,0.00,,,0.00,Wunderground v.1.15,2013-11-10 07:11:00,
2013-11-10 02:12:00,39.5,32.2,30.03,SSE,148,0.0,1.0,75,0.00,,,0.00,Wunderground v.1.15,2013-11-10 07:12:00,
2013-11-10 02:16:00,39.4,32.1,30.02,SSE,149,1.0,2.0,75,0.00,,,0.00,Wunderground v.1.15,2013-11-10 07:16:00,
2013-11-10 02:17:00,39.5,32.2,30.02,SSE,148,0.0,2.0,75,0.00,,,0.00,Wunderground v.1.15,2013-11-10 07:17:00,
2013-11-10 02:21:00,39.4,32.1,30.02,SSE,148,1.0,3.0,75,0.00,,,0.00,Wunderground v.1.15,2013-11-10 07:21:00,
2013-11-10 02:22:00,39.4,32.1,30.02,SSE,148,1.0,3.0,75,0.00,,,0.00,Wunderground v.1.15,2013-11-10 07:22:00,
2013-11-10 02:26:00,39.4,32.5,30.02,SSE,148,1.0,4.0,76,0.00,,,0.00,Wunderground v.1.15,2013-11-10 07:26:00,
2013-11-10 02:27:00,39.4,32.5,30.02,SSE,148,0.0,4.0,76,0.00,,,0.00,Wunderground v.1.15,2013-11-10 07:27:00,
2013-11-10 02:28:00,39.4,32.5,30.02,SSE,148,0.0,4.0,76,0.00,,,0.00,Wunderground v.1.15,2013-11-10 07:28:00,
2013-11-10 02:32:00,39.5,32.6,30.02,SSE,148,1.0,3.0,76,0.00,,,0.00,Wunderground v.1.15,2013-11-10 07:32:00,
2013-11-10 02:33:00,39.5,32.6,30.01,SSE,148,1.0,3.0,76,0.00,,,0.00,Wunderground v.1.15,2013-11-10 07:33:00,
2013-11-10 02:34:00,39.5,32.6,30.02,SSE,148,2.0,3.0,76,0.00,,,0.00,Wunderground v.1.15,2013-11-10 07:34:00,
2013-11-10 02:37:00,39.6,32.7,30.01,SSE,148,0.0,3.0,76,0.00,,,0.00,Wunderground v.1.15,2013-11-10 07:37:00,
2013-11-10 02:38:00,39.6,32.7,30.02,SSE,148,1.0,3.0,76,0.00,,,0.00,Wunderground v.1.15,2013-11-10 07:38:00,
2013-11-10 02:39:00,39.6,32.7,30.02,SSE,148,1.0,3.0,76,0.00,,,0.00,Wunderground v.1.15,2013-11-10 07:39:00,
2013-11-10 02:42:00,39.7,32.8,30.02,SSE,148,0.0,4.0,76,0.00,,,0.00,Wunderground v.1.15,2013-11-10 07:42:00,
2013-11-10 02:43:00,39.7,32.8,30.02,SSE,148,3.0,4.0,76,0.00,,,0.00,Wunderground v.1.15,2013-11-10 07:43:00,
2013-11-10 02:44:00,39.7,32.8,30.02,SSE,148,3.0,4.0,76,0.00,,,0.00,Wunderground v.1.15,2013-11-10 07:44:00,
2013-11-10 02:47:00,39.8,32.8,30.01,SSE,148,2.0,4.0,76,0.00,,,0.00,Wunderground v.1.15,2013-11-10 07:47:00,
2013-11-10 02:48:00,39.8,32.8,30.01,SSE,148,1.0,4.0,76,0.00,,,0.00,Wunderground v.1.15,2013-11-10 07:48:00,
2013-11-10 02:49:00,39.9,32.9,30.01,SSE,148,0.0,4.0,76,0.00,,,0.00,Wunderground v.1.15,2013-11-10 07:49:00,
2013-11-10 02:52:00,40.0,33.0,30.01,SSE,148,1.0,4.0,76,0.00,,,0.00,Wunderground v.1.15,2013-11-10 07:52:00,
2013-11-10 02:53:00,40.0,33.0,30.01,SSE,148,1.0,4.0,76,0.00,,,0.00,Wunderground v.1.15,2013-11-10 07:53:00,
2013-11-10 02:54:00,40.0,33.0,30.01,SSE,148,0.0,4.0,76,0.00,,,0.00,Wunderground v.1.15,2013-11-10 07:54:00,
2013-11-10 02:55:00,40.0,33.0,30.01,SSE,149,3.0,4.0,76,0.00,,,0.00,Wunderground v.1.15,2013-11-10 07:55:00,
2013-11-10 02:57:00,40.0,33.0,30.01,SSE,148,0.0,4.0,76,0.00,,,0.00,Wunderground v.1.15,2013-11-10 07:57:00,
2013-11-10 02:58:00,40.0,33.0,30.01,SSE,148,1.0,4.0,76,0.00,,,0.00,Wunderground v.1.15,2013-11-10 07:58:00,
2013-11-10 02:59:00,40.1,33.1,30.01,SSE,148,2.0,4.0,76,0.00,,,0.00,Wunderground v.1.15,2013-11-10 07:59:00,
2013-11-10 03:00:00,40.1,33.1,30.01,SSE,148,2.0,3.0,76,0.00,,,0.00,Wunderground v.1.15,2013-11-10 08:00:00,
2013-11-10 03:02:00,40.2,33.2,30.01,SSE,148,2.0,3.0,76,0.00,,,0.00,Wunderground v.1.15,2013-11-10 08:02:00,
2013-11-10 03:03:00,40.2,33.2,30.01,SSE,148,2.0,3.0,76,0.00,,,0.00,Wunderground v.1.15,2013-11-10 08:03:00,
2013-11-10 03:04:00,40.2,33.2,30.01,SSE,148,2.0,3.0,76,0.00,,,0.00,Wunderground v.1.15,2013-11-10 08:04:00,
2013-11-10 03:05:00,40.2,33.2,30.01,SSE,148,1.0,3.0,76,0.00,,,0.00,Wunderground v.1.15,2013-11-10 08:05:00,
2013-11-10 03:06:00,40.2,33.2,30.01,SSE,148,1.0,3.0,76,0.00,,,0.00,Wunderground v.1.15,2013-11-10 08:06:00,
2013-11-10 03:07:00,40.3,33.3,30.01,SSE,148,2.0,3.0,76,0.00,,,0.00,Wunderground v.1.15,2013-11-10 08:07:00,
2013-11-10 03:08:00,40.4,33.4,30.01,SSE,148,1.0,3.0,76,0.00,,,0.00,Wunderground v.1.15,2013-11-10 08:08:00,
2013-11-10 03:10:00,40.4,33.4,30.01,SSE,148,0.0,1.0,76,0.00,,,0.00,Wunderground v.1.15,2013-11-10 08:10:00,
2013-11-10 03:11:00,40.5,33.5,30.01,SSE,148,1.0,2.0,76,0.00,,,0.00,Wunderground v.1.15,2013-11-10 08:11:00,
2013-11-10 03:12:00,40.5,33.5,30.01,SSE,149,2.0,2.0,76,0.00,,,0.00,Wunderground v.1.15,2013-11-10 08:12:00,
2013-11-10 03:13:00,40.6,33.6,30.01,SSE,148,1.0,2.0,76,0.00,,,0.00,Wunderground v.1.15,2013-11-10 08:13:00,
2013-11-10 03:15:00,40.7,33.7,30.00,SSE,148,1.0,3.0,76,0.00,,,0.00,Wunderground v.1.15,2013-11-10 08:15:00,
2013-11-10 03:17:00,40.8,33.8,30.00,SSE,148,2.0,3.0,76,0.00,,,0.00,Wunderground v.1.15,2013-11-10 08:17:00,
2013-11-10 03:18:00,41.0,34.0,30.00,SSE,165,2.0,7.0,76,0.00,,,0.00,Wunderground v.1.15,2013-11-10 08:18:00,
2013-11-10 03:20:00,41.1,34.1,30.00,SSE,165,2.0,2.0,76,0.00,,,0.00,Wunderground v.1.15,2013-11-10 08:20:00,
2013-11-10 03:21:00,41.1,34.1,30.00,SSE,165,1.0,2.0,76,0.00,,,0.00,Wunderground v.1.15,2013-11-10 08:21:00,
2013-11-10 03:23:00,41.2,34.2,30.00,SSE,165,2.0,4.0,76,0.00,,,0.00,Wunderground v.1.15,2013-11-10 08:23:00,
2013-11-10 03:24:00,41.3,34.3,30.00,SSE,165,2.0,4.0,76,0.00,,,0.00,Wunderground v.1.15,2013-11-10 08:24:00,
2013-11-10 03:26:00,41.3,34.3,30.00,SSE,165,0.0,4.0,76,0.00,,,0.00,Wunderground v.1.15,2013-11-10 08:26:00,
2013-11-10 03:27:00,41.3,34.3,30.00,SSE,165,0.0,4.0,76,0.00,,,0.00,Wunderground v.1.15,2013-11-10 08:27:00,
2013-11-10 03:28:00,41.3,34.3,30.00,SSE,165,0.0,4.0,76,0.00,,,0.00,Wunderground v.1.15,2013-11-10 08:28:00,
2013-11-10 03:29:00,41.3,34.3,30.00,SSE,165,1.0,4.0,76,0.00,,,0.00,Wunderground v.1.15,2013-11-10 08:29:00,
2013-11-10 03:31:00,41.4,34.4,30.00,SSE,165,1.0,4.0,76,0.00,,,0.00,Wunderground v.1.15,2013-11-10 08:31:00,
2013-11-10 03:32:00,41.5,34.5,30.00,SSE,165,0.0,4.0,76,0.00,,,0.00,Wunderground v.1.15,2013-11-10 08:32:00,
2013-11-10 03:33:00,41.6,34.6,30.00,SSE,165,1.0,4.0,76,0.00,,,0.00,Wunderground v.1.15,2013-11-10 08:33:00,
2013-11-10 03:34:00,41.6,34.9,30.00,SSE,165,2.0,4.0,77,0.00,,,0.00,Wunderground v.1.15,2013-11-10 08:34:00,
2013-11-10 03:35:00,41.7,35.0,30.00,SSE,165,0.0,4.0,77,0.00,,,0.00,Wunderground v.1.15,2013-11-10 08:35:00,
2013-11-10 03:36:00,41.7,35.0,30.00,SSE,165,1.0,4.0,77,0.00,,,0.00,Wunderground v.1.15,2013-11-10 08:36:00,
2013-11-10 03:37:00,41.8,35.1,30.00,SSE,165,1.0,4.0,77,0.00,,,0.00,Wunderground v.1.15,2013-11-10 08:37:00,
2013-11-10 03:38:00,41.8,35.1,30.00,SSE,165,1.0,4.0,77,0.00,,,0.00,Wunderground v.1.15,2013-11-10 08:38:00,
2013-11-10 03:39:00,41.8,35.1,30.00,South,187,3.0,5.0,77,0.00,,,0.00,Wunderground v.1.15,2013-11-10 08:39:00,
2013-11-10 03:40:00,41.8,35.1,30.00,South,169,4.0,4.0,77,0.00,,,0.00,Wunderground v.1.15,2013-11-10 08:40:00,
2013-11-10 03:41:00,41.8,35.4,30.00,SSE,166,1.0,4.0,78,0.00,,,0.00,Wunderground v.1.15,2013-11-10 08:41:00,
2013-11-10 03:42:00,41.8,35.8,30.00,South,171,4.0,5.0,79,0.00,,,0.01,Wunderground v.1.15,2013-11-10 08:42:00,
2013-11-10 03:43:00,41.8,35.8,30.00,South,174,1.0,5.0,79,0.00,,,0.01,Wunderground v.1.15,2013-11-10 08:43:00,
2013-11-10 03:44:00,41.7,35.7,30.00,South,174,1.0,5.0,79,0.00,,,0.01,Wunderground v.1.15,2013-11-10 08:44:00,
2013-11-10 03:45:00,41.6,35.6,30.00,South,174,2.0,5.0,79,0.00,,,0.01,Wunderground v.1.15,2013-11-10 08:45:00,
2013-11-10 03:46:00,41.6,35.9,30.00,South,174,1.0,5.0,80,0.13,,,0.02,Wunderground v.1.15,2013-11-10 08:46:00,
2013-11-10 03:48:00,41.4,36.0,30.00,South,172,1.0,5.0,81,0.13,,,0.02,Wunderground v.1.15,2013-11-10 08:48:00,
2013-11-10 03:49:00,41.3,35.9,30.00,SSW,202,2.0,5.0,81,0.13,,,0.02,Wunderground v.1.15,2013-11-10 08:49:00,
2013-11-10 03:51:00,41.1,36.0,30.00,SSW,202,2.0,2.0,82,0.12,,,0.02,Wunderground v.1.15,2013-11-10 08:51:00,
2013-11-10 03:53:00,41.0,35.9,30.00,South,185,1.0,6.0,82,0.08,,,0.02,Wunderground v.1.15,2013-11-10 08:53:00,
2013-11-10 03:54:00,40.9,36.1,30.00,SW,232,0.0,6.0,83,0.07,,,0.02,Wunderground v.1.15,2013-11-10 08:54:00,
2013-11-10 03:55:00,40.9,36.1,30.00,SW,232,0.0,6.0,83,0.07,,,0.02,Wunderground v.1.15,2013-11-10 08:55:00,
2013-11-10 03:56:00,40.9,36.1,30.00,SSW,192,2.0,6.0,83,0.06,,,0.02,Wunderground v.1.15,2013-11-10 08:56:00,
2013-11-10 03:59:00,40.8,36.0,30.00,South,182,3.0,6.0,83,0.05,,,0.02,Wunderground v.1.15,2013-11-10 08:59:00,
2013-11-10 04:00:00,40.8,36.0,29.99,South,182,1.0,2.0,83,0.04,,,0.02,Wunderground v.1.15,2013-11-10 09:00:00,
2013-11-10 04:01:00,40.7,35.9,29.99,South,182,0.0,2.0,83,0.04,,,0.02,Wunderground v.1.15,2013-11-10 09:01:00,
2013-11-10 04:04:00,40.7,35.9,29.99,South,182,1.0,4.0,83,0.04,,,0.03,Wunderground v.1.15,2013-11-10 09:04:00,
2013-11-10 04:06:00,40.6,36.1,29.99,South,182,1.0,4.0,84,0.04,,,0.03,Wunderground v.1.15,2013-11-10 09:06:00,
2013-11-10 04:07:00,40.6,36.1,29.99,South,182,1.0,4.0,84,0.04,,,0.03,Wunderground v.1.15,2013-11-10 09:07:00,
2013-11-10 04:09:00,40.6,36.1,29.99,South,182,2.0,4.0,84,0.04,,,0.03,Wunderground v.1.15,2013-11-10 09:09:00,
2013-11-10 04:10:00,40.6,36.1,29.99,South,182,0.0,1.0,84,0.04,,,0.03,Wunderground v.1.15,2013-11-10 09:10:00,
2013-11-10 04:11:00,40.5,36.0,29.99,South,182,2.0,3.0,84,0.04,,,0.03,Wunderground v.1.15,2013-11-10 09:11:00,
2013-11-10 04:12:00,40.5,36.3,29.99,South,180,2.0,3.0,85,0.04,,,0.03,Wunderground v.1.15,2013-11-10 09:12:00,
2013-11-10 04:14:00,40.4,36.2,29.99,South,180,0.0,3.0,85,0.04,,,0.03,Wunderground v.1.15,2013-11-10 09:14:00,
2013-11-10 04:15:00,40.4,36.2,29.99,South,180,0.0,3.0,85,0.04,,,0.03,Wunderground v.1.15,2013-11-10 09:15:00,
2013-11-10 04:16:00,40.4,36.2,29.99,South,180,1.0,3.0,85,0.04,,,0.03,Wunderground v.1.15,2013-11-10 09:16:00,
2013-11-10 04:17:00,40.4,36.2,29.99,South,180,1.0,3.0,85,0.04,,,0.03,Wunderground v.1.15,2013-11-10 09:17:00,
2013-11-10 04:19:00,40.3,36.1,29.99,South,180,0.0,3.0,85,0.04,,,0.04,Wunderground v.1.15,2013-11-10 09:19:00,
2013-11-10 04:20:00,40.3,36.1,29.99,South,180,1.0,1.0,85,0.04,,,0.04,Wunderground v.1.15,2013-11-10 09:20:00,
2013-11-10 04:21:00,40.2,36.1,29.99,South,180,0.0,3.0,85,0.04,,,0.04,Wunderground v.1.15,2013-11-10 09:21:00,
2013-11-10 04:22:00,40.2,36.1,29.99,South,180,0.0,3.0,85,0.04,,,0.04,Wunderground v.1.15,2013-11-10 09:22:00,
2013-11-10 04:23:00,40.2,36.3,29.98,South,180,0.0,3.0,86,0.04,,,0.04,Wunderground v.1.15,2013-11-10 09:23:00,
2013-11-10 04:24:00,40.2,36.3,29.98,South,180,0.0,3.0,86,0.04,,,0.04,Wunderground v.1.15,2013-11-10 09:24:00,
2013-11-10 04:25:00,40.2,36.3,29.98,South,180,0.0,3.0,86,0.04,,,0.04,Wunderground v.1.15,2013-11-10 09:25:00,
2013-11-10 04:26:00,40.2,36.3,29.98,South,180,0.0,3.0,86,0.04,,,0.04,Wunderground v.1.15,2013-11-10 09:26:00,
2013-11-10 04:27:00,40.1,36.2,29.98,South,180,1.0,3.0,86,0.04,,,0.04,Wunderground v.1.15,2013-11-10 09:27:00,
2013-11-10 04:28:00,40.0,36.2,29.98,South,180,0.0,3.0,86,0.04,,,0.04,Wunderground v.1.15,2013-11-10 09:28:00,
2013-11-10 04:29:00,40.0,36.2,29.98,South,180,0.0,3.0,86,0.04,,,0.04,Wunderground v.1.15,2013-11-10 09:29:00,
2013-11-10 04:31:00,40.0,36.4,29.98,South,180,0.0,1.0,87,0.04,,,0.04,Wunderground v.1.15,2013-11-10 09:31:00,
2013-11-10 04:32:00,40.0,36.4,29.98,South,180,0.0,1.0,87,0.04,,,0.04,Wunderground v.1.15,2013-11-10 09:32:00,
2013-11-10 04:33:00,40.0,36.4,29.98,South,180,0.0,1.0,87,0.04,,,0.04,Wunderground v.1.15,2013-11-10 09:33:00,
2013-11-10 04:35:00,40.0,36.4,29.98,South,180,0.0,1.0,87,0.00,,,0.04,Wunderground v.1.15,2013-11-10 09:35:00,
2013-11-10 04:36:00,39.9,36.3,29.98,South,180,1.0,1.0,87,0.00,,,0.04,Wunderground v.1.15,2013-11-10 09:36:00,
2013-11-10 04:37:00,39.9,36.3,29.98,South,180,1.0,1.0,87,0.00,,,0.04,Wunderground v.1.15,2013-11-10 09:37:00,
2013-11-10 04:38:00,39.9,36.3,29.98,South,180,0.0,1.0,87,0.00,,,0.04,Wunderground v.1.15,2013-11-10 09:38:00,
2013-11-10 04:40:00,39.8,36.2,29.98,South,180,0.0,0.0,87,0.00,,,0.04,Wunderground v.1.15,2013-11-10 09:40:00,
2013-11-10 04:41:00,39.8,36.2,29.98,South,180,0.0,3.0,87,0.00,,,0.04,Wunderground v.1.15,2013-11-10 09:41:00,
2013-11-10 04:42:00,39.8,36.2,29.98,South,180,2.0,3.0,87,0.00,,,0.04,Wunderground v.1.15,2013-11-10 09:42:00,
2013-11-10 04:43:00,39.8,36.5,29.98,South,180,0.0,3.0,88,0.00,,,0.04,Wunderground v.1.15,2013-11-10 09:43:00,
2013-11-10 04:45:00,39.8,36.5,29.98,South,180,1.0,3.0,88,0.00,,,0.04,Wunderground v.1.15,2013-11-10 09:45:00,
2013-11-10 04:47:00,39.8,36.5,29.98,South,180,1.0,3.0,88,0.00,,,0.04,Wunderground v.1.15,2013-11-10 09:47:00,
2013-11-10 04:48:00,39.8,36.5,29.98,South,180,2.0,3.0,88,0.00,,,0.04,Wunderground v.1.15,2013-11-10 09:48:00,
2013-11-10 04:49:00,39.8,36.5,29.98,South,180,0.0,3.0,88,0.00,,,0.04,Wunderground v.1.15,2013-11-10 09:49:00,
2013-11-10 04:50:00,39.8,36.5,29.98,South,180,0.0,1.0,88,0.00,,,0.04,Wunderground v.1.15,2013-11-10 09:50:00,
2013-11-10 04:52:00,39.7,36.4,29.98,South,180,0.0,3.0,88,0.00,,,0.04,Wunderground v.1.15,2013-11-10 09:52:00,
2013-11-10 04:53:00,39.8,36.5,29.98,South,180,1.0,3.0,88,0.00,,,0.04,Wunderground v.1.15,2013-11-10 09:53:00,
2013-11-10 04:54:00,39.8,36.5,29.98,South,180,2.0,3.0,88,0.00,,,0.04,Wunderground v.1.15,2013-11-10 09:54:00,
2013-11-10 04:55:00,39.8,36.5,29.98,South,178,0.0,3.0,88,0.00,,,0.04,Wunderground v.1.15,2013-11-10 09:55:00,
2013-11-10 04:57:00,39.9,36.6,29.98,South,178,0.0,3.0,88,0.00,,,0.05,Wunderground v.1.15,2013-11-10 09:57:00,
2013-11-10 04:58:00,39.9,36.6,29.98,South,178,0.0,3.0,88,0.00,,,0.05,Wunderground v.1.15,2013-11-10 09:58:00,
2013-11-10 04:59:00,40.0,36.7,29.98,South,178,0.0,3.0,88,0.00,,,0.05,Wunderground v.1.15,2013-11-10 09:59:00,
2013-11-10 05:00:00,40.0,36.7,29.98,South,178,0.0,0.0,88,0.00,,,0.05,Wunderground v.1.15,2013-11-10 10:00:00,
2013-11-10 05:02:00,40.1,36.8,29.98,South,178,0.0,1.0,88,0.00,,,0.05,Wunderground v.1.15,2013-11-10 10:02:00,
2013-11-10 05:04:00,40.1,36.8,29.98,South,178,0.0,1.0,88,0.00,,,0.05,Wunderground v.1.15,2013-11-10 10:04:00,
2013-11-10 05:05:00,40.1,36.8,29.98,South,178,2.0,2.0,88,0.00,,,0.05,Wunderground v.1.15,2013-11-10 10:05:00,
2013-11-10 05:07:00,40.3,37.0,29.97,South,178,0.0,2.0,88,0.00,,,0.05,Wunderground v.1.15,2013-11-10 10:07:00,
2013-11-10 05:09:00,40.4,37.1,29.97,South,178,1.0,2.0,88,0.00,,,0.05,Wunderground v.1.15,2013-11-10 10:09:00,
2013-11-10 05:10:00,40.4,37.1,29.97,South,178,0.0,0.0,88,0.00,,,0.05,Wunderground v.1.15,2013-11-10 10:10:00,
2013-11-10 05:11:00,40.5,37.2,29.97,South,178,0.0,1.0,88,0.00,,,0.05,Wunderground v.1.15,2013-11-10 10:11:00,
2013-11-10 05:13:00,40.6,37.3,29.97,South,178,2.0,2.0,88,0.00,,,0.05,Wunderground v.1.15,2013-11-10 10:13:00,
2013-11-10 05:14:00,40.7,37.4,29.97,South,178,1.0,2.0,88,0.00,,,0.05,Wunderground v.1.15,2013-11-10 10:14:00,
2013-11-10 05:15:00,40.7,37.4,29.97,South,178,0.0,2.0,88,0.00,,,0.05,Wunderground v.1.15,2013-11-10 10:15:00,
2013-11-10 05:16:00,40.8,37.2,29.97,South,178,1.0,2.0,87,0.00,,,0.05,Wunderground v.1.15,2013-11-10 10:16:00,
2013-11-10 05:18:00,40.9,37.6,29.97,South,178,0.0,2.0,88,0.00,,,0.05,Wunderground v.1.15,2013-11-10 10:18:00,
2013-11-10 05:19:00,40.9,37.6,29.97,South,178,0.0,2.0,88,0.00,,,0.05,Wunderground v.1.15,2013-11-10 10:19:00,
2013-11-10 05:20:00,40.9,37.6,29.96,South,178,0.0,0.0,88,0.00,,,0.05,Wunderground v.1.15,2013-11-10 10:20:00,
2013-11-10 05:21:00,41.0,37.7,29.96,South,178,0.0,1.0,88,0.00,,,0.05,Wunderground v.1.15,2013-11-10 10:21:00,
2013-11-10 05:22:00,41.0,37.7,29.96,South,178,0.0,1.0,88,0.00,,,0.05,Wunderground v.1.15,2013-11-10 10:22:00,
2013-11-10 05:23:00,41.0,37.7,29.96,South,178,0.0,1.0,88,0.00,,,0.05,Wunderground v.1.15,2013-11-10 10:23:00,
2013-11-10 05:24:00,41.1,37.8,29.96,South,178,0.0,1.0,88,0.00,,,0.05,Wunderground v.1.15,2013-11-10 10:24:00,
2013-11-10 05:25:00,41.0,37.7,29.96,South,178,0.0,1.0,88,0.00,,,0.05,Wunderground v.1.15,2013-11-10 10:25:00,
2013-11-10 05:26:00,41.1,37.8,29.96,South,178,1.0,2.0,88,0.00,,,0.05,Wunderground v.1.15,2013-11-10 10:26:00,
2013-11-10 05:27:00,41.1,37.8,29.96,South,178,0.0,2.0,88,0.00,,,0.05,Wunderground v.1.15,2013-11-10 10:27:00,
2013-11-10 05:28:00,41.1,37.8,29.96,South,178,0.0,2.0,88,0.00,,,0.05,Wunderground v.1.15,2013-11-10 10:28:00,
2013-11-10 05:29:00,41.1,37.8,29.96,South,178,0.0,2.0,88,0.00,,,0.05,Wunderground v.1.15,2013-11-10 10:29:00,
2013-11-10 05:30:00,41.1,37.8,29.96,South,178,0.0,0.0,88,0.00,,,0.05,Wunderground v.1.15,2013-11-10 10:30:00,
2013-11-10 05:31:00,41.1,37.8,29.95,South,178,0.0,0.0,88,0.00,,,0.05,Wunderground v.1.15,2013-11-10 10:31:00,
2013-11-10 05:32:00,41.2,37.9,29.95,South,178,0.0,0.0,88,0.00,,,0.05,Wunderground v.1.15,2013-11-10 10:32:00,
2013-11-10 05:34:00,41.1,37.8,29.95,South,178,0.0,1.0,88,0.00,,,0.05,Wunderground v.1.15,2013-11-10 10:34:00,
2013-11-10 05:35:00,41.1,37.8,29.95,South,178,0.0,1.0,88,0.00,,,0.05,Wunderground v.1.15,2013-11-10 10:35:00,
2013-11-10 05:36:00,41.1,37.8,29.95,South,178,0.0,1.0,88,0.00,,,0.05,Wunderground v.1.15,2013-11-10 10:36:00,
2013-11-10 05:37:00,41.1,37.8,29.95,South,178,0.0,1.0,88,0.00,,,0.05,Wunderground v.1.15,2013-11-10 10:37:00,
2013-11-10 05:39:00,41.0,37.7,29.95,South,178,0.0,1.0,88,0.00,,,0.05,Wunderground v.1.15,2013-11-10 10:39:00,
2013-11-10 05:41:00,41.0,37.7,29.95,South,178,0.0,0.0,88,0.00,,,0.05,Wunderground v.1.15,2013-11-10 10:41:00,
2013-11-10 05:42:00,41.0,37.7,29.95,South,178,0.0,0.0,88,0.00,,,0.05,Wunderground v.1.15,2013-11-10 10:42:00,
2013-11-10 05:45:00,40.9,37.6,29.95,South,178,0.0,0.0,88,0.00,,,0.05,Wunderground v.1.15,2013-11-10 10:45:00,
2013-11-10 05:46:00,40.9,37.6,29.95,South,178,0.0,0.0,88,0.00,,,0.05,Wunderground v.1.15,2013-11-10 10:46:00,
2013-11-10 05:48:00,40.8,37.5,29.95,South,178,0.0,0.0,88,0.00,,,0.05,Wunderground v.1.15,2013-11-10 10:48:00,
2013-11-10 05:51:00,40.6,37.3,29.95,South,178,0.0,0.0,88,0.00,,,0.05,Wunderground v.1.15,2013-11-10 10:51:00,
2013-11-10 05:53:00,40.5,37.2,29.95,South,178,0.0,0.0,88,0.00,,,0.05,Wunderground v.1.15,2013-11-10 10:53:00,
2013-11-10 05:56:00,40.6,37.6,29.95,South,178,0.0,1.0,89,0.00,,,0.05,Wunderground v.1.15,2013-11-10 10:56:00,
2013-11-10 05:57:00,40.9,37.9,29.95,South,178,0.0,1.0,89,0.00,,,0.05,Wunderground v.1.15,2013-11-10 10:57:00,
2013-11-10 05:58:00,43.1,39.8,29.95,South,178,0.0,1.0,88,0.00,,,0.05,Wunderground v.1.15,2013-11-10 10:58:00,
2013-11-10 06:01:00,46.9,42.3,29.95,South,178,0.0,1.0,84,0.00,,,0.05,Wunderground v.1.15,2013-11-10 11:01:00,
2013-11-10 06:02:00,47.0,42.4,29.95,South,178,0.0,1.0,84,0.00,,,0.05,Wunderground v.1.15,2013-11-10 11:02:00,
2013-11-10 06:03:00,46.7,42.1,29.95,South,178,0.0,1.0,84,0.00,,,0.05,Wunderground v.1.15,2013-11-10 11:03:00,
2013-11-10 06:06:00,44.5,40.3,29.95,South,178,0.0,1.0,85,0.00,,,0.05,Wunderground v.1.15,2013-11-10 11:06:00,
2013-11-10 06:07:00,44.3,40.1,29.95,South,178,0.0,1.0,85,0.00,,,0.05,Wunderground v.1.15,2013-11-10 11:07:00,
2013-11-10 06:08:00,45.0,41.1,29.95,South,178,0.0,1.0,86,0.00,,,0.05,Wunderground v.1.15,2013-11-10 11:08:00,
2013-11-10 06:12:00,55.4,51.3,29.95,South,178,1.0,1.0,86,0.00,,,0.05,Wunderground v.1.15,2013-11-10 11:12:00,
2013-11-10 06:13:00,55.5,51.1,29.95,South,178,2.0,2.0,85,0.00,,,0.05,Wunderground v.1.15,2013-11-10 11:13:00,
2013-11-10 06:14:00,52.7,48.0,29.94,South,178,2.0,2.0,84,0.00,,,0.05,Wunderground v.1.15,2013-11-10 11:14:00,
2013-11-10 06:17:00,46.6,42.3,29.94,South,178,0.0,3.0,85,0.00,,,0.05,Wunderground v.1.15,2013-11-10 11:17:00,
2013-11-10 06:18:00,45.8,41.9,29.94,South,178,0.0,3.0,86,0.00,,,0.05,Wunderground v.1.15,2013-11-10 11:18:00,
2013-11-10 06:19:00,45.3,41.7,29.94,South,178,0.0,3.0,87,0.00,,,0.05,Wunderground v.1.15,2013-11-10 11:19:00,
2013-11-10 06:22:00,44.8,41.2,29.94,South,178,0.0,1.0,87,0.00,,,0.05,Wunderground v.1.15,2013-11-10 11:22:00,
2013-11-10 06:23:00,44.4,41.1,29.95,South,178,0.0,1.0,88,0.00,,,0.05,Wunderground v.1.15,2013-11-10 11:23:00,
2013-11-10 06:24:00,44.0,40.7,29.95,South,178,0.0,1.0,88,0.00,,,0.05,Wunderground v.1.15,2013-11-10 11:24:00,
2013-11-10 06:27:00,48.3,44.0,29.95,South,178,0.0,1.0,85,0.00,,,0.05,Wunderground v.1.15,2013-11-10 11:27:00,
2013-11-10 06:28:00,49.4,44.8,29.95,South,178,0.0,1.0,84,0.00,,,0.05,Wunderground v.1.15,2013-11-10 11:28:00,
2013-11-10 06:29:00,49.8,45.2,29.94,South,178,0.0,1.0,84,0.00,,,0.05,Wunderground v.1.15,2013-11-10 11:29:00,
2013-11-10 06:32:00,48.1,43.8,29.94,South,178,0.0,1.0,85,0.00,,,0.05,Wunderground v.1.15,2013-11-10 11:32:00,
2013-11-10 06:33:00,47.2,42.9,29.94,South,178,0.0,1.0,85,0.00,,,0.05,Wunderground v.1.15,2013-11-10 11:33:00,
2013-11-10 06:34:00,47.1,42.8,29.94,South,178,0.0,1.0,85,0.00,,,0.05,Wunderground v.1.15,2013-11-10 11:34:00,
2013-11-10 06:37:00,51.0,46.3,29.94,South,178,0.0,1.0,84,0.00,,,0.05,Wunderground v.1.15,2013-11-10 11:37:00,
2013-11-10 06:38:00,51.5,46.8,29.94,South,178,1.0,2.0,84,0.00,,,0.05,Wunderground v.1.15,2013-11-10 11:38:00,
2013-11-10 06:39:00,51.3,46.6,29.94,South,178,1.0,2.0,84,0.00,,,0.05,Wunderground v.1.15,2013-11-10 11:39:00,
2013-11-10 06:42:00,48.1,43.8,29.94,South,178,0.0,1.0,85,0.00,,,0.05,Wunderground v.1.15,2013-11-10 11:42:00,
2013-11-10 06:44:00,48.6,44.3,29.95,South,178,0.0,1.0,85,0.00,,,0.05,Wunderground v.1.15,2013-11-10 11:44:00,
2013-11-10 06:45:00,48.4,44.1,29.94,South,178,0.0,1.0,85,0.00,,,0.05,Wunderground v.1.15,2013-11-10 11:45:00,
2013-11-10 06:47:00,46.8,43.1,29.94,South,178,1.0,1.0,87,0.00,,,0.05,Wunderground v.1.15,2013-11-10 11:47:00,
2013-11-10 06:49:00,45.3,42.2,29.94,South,178,1.0,1.0,89,0.00,,,0.05,Wunderground v.1.15,2013-11-10 11:49:00,
2013-11-10 06:50:00,44.7,41.7,29.94,South,178,0.0,0.0,89,0.00,,,0.05,Wunderground v.1.15,2013-11-10 11:50:00,
2013-11-10 06:52:00,43.4,40.4,29.94,South,178,0.0,2.0,89,0.00,,,0.05,Wunderground v.1.15,2013-11-10 11:52:00,
2013-11-10 06:53:00,43.2,40.2,29.94,South,178,1.0,2.0,89,0.00,,,0.05,Wunderground v.1.15,2013-11-10 11:53:00,
2013-11-10 06:54:00,42.8,39.8,29.94,South,178,0.0,2.0,89,0.00,,,0.05,Wunderground v.1.15,2013-11-10 11:54:00,
2013-11-10 06:55:00,42.5,39.5,29.94,South,178,0.0,2.0,89,0.00,,,0.05,Wunderground v.1.15,2013-11-10 11:55:00,
2013-11-10 06:57:00,42.2,39.2,29.95,South,178,0.0,2.0,89,0.00,,,0.05,Wunderground v.1.15,2013-11-10 11:57:00,
2013-11-10 06:58:00,42.2,39.2,29.95,South,178,0.0,2.0,89,0.00,,,0.05,Wunderground v.1.15,2013-11-10 11:58:00,
2013-11-10 06:59:00,42.1,39.1,29.95,South,178,0.0,2.0,89,0.00,,,0.05,Wunderground v.1.15,2013-11-10 11:59:00,
2013-11-10 07:00:00,42.0,39.0,29.94,South,178,0.0,0.0,89,0.00,,,0.05,Wunderground v.1.15,2013-11-10 12:00:00,
2013-11-10 07:01:00,41.9,38.9,29.95,South,178,0.0,1.0,89,0.00,,,0.05,Wunderground v.1.15,2013-11-10 12:01:00,
2013-11-10 07:02:00,41.8,38.8,29.94,South,178,0.0,1.0,89,0.00,,,0.05,Wunderground v.1.15,2013-11-10 12:02:00,
2013-11-10 07:03:00,41.7,38.7,29.94,South,178,0.0,1.0,89,0.00,,,0.05,Wunderground v.1.15,2013-11-10 12:03:00,
2013-11-10 07:04:00,41.7,38.7,29.94,South,178,0.0,1.0,89,0.00,,,0.05,Wunderground v.1.15,2013-11-10 12:04:00,
2013-11-10 07:05:00,41.6,38.6,29.94,South,178,0.0,1.0,89,0.00,,,0.05,Wunderground v.1.15,2013-11-10 12:05:00,
2013-11-10 07:06:00,41.6,38.6,29.94,South,178,0.0,1.0,89,0.00,,,0.05,Wunderground v.1.15,2013-11-10 12:06:00,
2013-11-10 07:07:00,41.5,38.5,29.94,South,178,1.0,1.0,89,0.00,,,0.05,Wunderground v.1.15,2013-11-10 12:07:00,
2013-11-10 07:08:00,41.5,38.5,29.94,South,178,1.0,2.0,89,0.00,,,0.05,Wunderground v.1.15,2013-11-10 12:08:00,
2013-11-10 07:09:00,41.5,38.5,29.94,South,178,0.0,2.0,89,0.00,,,0.05,Wunderground v.1.15,2013-11-10 12:09:00,
2013-11-10 07:10:00,41.5,38.5,29.94,South,178,1.0,1.0,89,0.00,,,0.05,Wunderground v.1.15,2013-11-10 12:10:00,
2013-11-10 07:11:00,41.5,38.5,29.94,South,178,0.0,1.0,89,0.00,,,0.05,Wunderground v.1.15,2013-11-10 12:11:00,
2013-11-10 07:13:00,41.5,38.5,29.94,South,178,0.0,1.0,89,0.00,,,0.05,Wunderground v.1.15,2013-11-10 12:13:00,
2013-11-10 07:14:00,41.5,38.5,29.94,South,178,0.0,1.0,89,0.00,,,0.05,Wunderground v.1.15,2013-11-10 12:14:00,
2013-11-10 07:15:00,41.5,38.5,29.94,South,178,1.0,2.0,89,0.00,,,0.05,Wunderground v.1.15,2013-11-10 12:15:00,
2013-11-10 07:16:00,41.5,38.5,29.93,South,178,0.0,2.0,89,0.00,,,0.05,Wunderground v.1.15,2013-11-10 12:16:00,
2013-11-10 07:17:00,41.5,38.5,29.93,South,178,0.0,2.0,89,0.00,,,0.05,Wunderground v.1.15,2013-11-10 12:17:00,
2013-11-10 07:18:00,41.5,38.5,29.93,South,178,0.0,2.0,89,0.00,,,0.05,Wunderground v.1.15,2013-11-10 12:18:00,
2013-11-10 07:19:00,41.5,38.5,29.93,South,178,0.0,2.0,89,0.00,,,0.05,Wunderground v.1.15,2013-11-10 12:19:00,
2013-11-10 07:20:00,41.5,38.5,29.93,South,178,0.0,0.0,89,0.00,,,0.05,Wunderground v.1.15,2013-11-10 12:20:00,
2013-11-10 07:21:00,41.6,38.6,29.93,South,178,1.0,1.0,89,0.00,,,0.05,Wunderground v.1.15,2013-11-10 12:21:00,
2013-11-10 07:22:00,41.6,38.6,29.94,South,178,0.0,1.0,89,0.00,,,0.05,Wunderground v.1.15,2013-11-10 12:22:00,
2013-11-10 07:24:00,41.5,38.5,29.94,South,178,0.0,1.0,89,0.00,,,0.05,Wunderground v.1.15,2013-11-10 12:24:00,
2013-11-10 07:25:00,41.6,38.6,29.94,South,178,0.0,1.0,89,0.00,,,0.05,Wunderground v.1.15,2013-11-10 12:25:00,
2013-11-10 07:26:00,41.6,38.6,29.93,South,178,0.0,1.0,89,0.00,,,0.05,Wunderground v.1.15,2013-11-10 12:26:00,
2013-11-10 07:27:00,41.6,38.6,29.93,South,178,0.0,1.0,89,0.00,,,0.05,Wunderground v.1.15,2013-11-10 12:27:00,
2013-11-10 07:28:00,41.6,38.6,29.93,South,178,1.0,1.0,89,0.00,,,0.05,Wunderground v.1.15,2013-11-10 12:28:00,
2013-11-10 07:29:00,41.6,38.6,29.93,South,178,0.0,1.0,89,0.00,,,0.05,Wunderground v.1.15,2013-11-10 12:29:00,
2013-11-10 07:30:00,41.6,38.6,29.93,South,178,0.0,2.0,89,0.00,,,0.05,Wunderground v.1.15,2013-11-10 12:30:00,
2013-11-10 07:31:00,41.6,38.6,29.93,South,178,0.0,2.0,89,0.00,,,0.05,Wunderground v.1.15,2013-11-10 12:31:00,
2013-11-10 07:32:00,41.6,38.6,29.93,South,178,0.0,2.0,89,0.00,,,0.05,Wunderground v.1.15,2013-11-10 12:32:00,
2013-11-10 07:34:00,41.6,38.6,29.93,South,178,0.0,2.0,89,0.00,,,0.05,Wunderground v.1.15,2013-11-10 12:34:00,
2013-11-10 07:35:00,41.7,38.7,29.93,South,178,0.0,2.0,89,0.00,,,0.05,Wunderground v.1.15,2013-11-10 12:35:00,
2013-11-10 07:36:00,41.8,38.8,29.93,South,178,1.0,2.0,89,0.00,,,0.05,Wunderground v.1.15,2013-11-10 12:36:00,
2013-11-10 07:37:00,41.8,38.8,29.93,South,178,1.0,2.0,89,0.00,,,0.05,Wunderground v.1.15,2013-11-10 12:37:00,
2013-11-10 07:39:00,41.9,38.9,29.93,South,178,1.0,3.0,89,0.00,,,0.05,Wunderground v.1.15,2013-11-10 12:39:00,
2013-11-10 07:40:00,41.9,38.9,29.93,South,178,0.0,1.0,89,0.00,,,0.05,Wunderground v.1.15,2013-11-10 12:40:00,
2013-11-10 07:41:00,42.0,39.0,29.93,South,178,0.0,1.0,89,0.00,,,0.05,Wunderground v.1.15,2013-11-10 12:41:00,
2013-11-10 07:42:00,42.0,39.0,29.93,South,178,0.0,2.0,89,0.00,,,0.05,Wunderground v.1.15,2013-11-10 12:42:00,
2013-11-10 07:43:00,42.0,39.0,29.93,South,178,0.0,2.0,89,0.00,,,0.05,Wunderground v.1.15,2013-11-10 12:43:00,
2013-11-10 07:44:00,42.1,39.1,29.93,South,178,0.0,2.0,89,0.00,,,0.05,Wunderground v.1.15,2013-11-10 12:44:00,
2013-11-10 07:45:00,42.1,39.1,29.93,South,178,0.0,2.0,89,0.00,,,0.05,Wunderground v.1.15,2013-11-10 12:45:00,
2013-11-10 07:46:00,42.2,39.2,29.93,South,178,1.0,2.0,89,0.00,,,0.05,Wunderground v.1.15,2013-11-10 12:46:00,
2013-11-10 07:47:00,42.2,39.2,29.93,South,178,1.0,2.0,89,0.00,,,0.05,Wunderground v.1.15,2013-11-10 12:47:00,
2013-11-10 07:48:00,42.2,39.2,29.93,South,178,0.0,2.0,89,0.00,,,0.05,Wunderground v.1.15,2013-11-10 12:48:00,
2013-11-10 07:49:00,42.2,39.2,29.93,South,178,0.0,2.0,89,0.00,,,0.05,Wunderground v.1.15,2013-11-10 12:49:00,
2013-11-10 07:50:00,42.2,39.2,29.93,South,178,0.0,1.0,89,0.00,,,0.05,Wunderground v.1.15,2013-11-10 12:50:00,
2013-11-10 07:51:00,42.2,39.2,29.92,South,178,0.0,1.0,89,0.00,,,0.05,Wunderground v.1.15,2013-11-10 12:51:00,
2013-11-10 07:53:00,42.2,39.2,29.93,South,178,1.0,1.0,89,0.00,,,0.05,Wunderground v.1.15,2013-11-10 12:53:00,
2013-11-10 07:54:00,42.2,39.2,29.93,South,178,0.0,1.0,89,0.00,,,0.05,Wunderground v.1.15,2013-11-10 12:54:00,
2013-11-10 07:55:00,42.3,39.3,29.93,South,178,0.0,1.0,89,0.00,,,0.05,Wunderground v.1.15,2013-11-10 12:55:00,
2013-11-10 07:56:00,42.3,39.3,29.93,South,178,0.0,1.0,89,0.00,,,0.05,Wunderground v.1.15,2013-11-10 12:56:00,
2013-11-10 07:58:00,42.3,39.3,29.93,South,178,0.0,2.0,89,0.00,,,0.05,Wunderground v.1.15,2013-11-10 12:58:00,
2013-11-10 07:59:00,42.3,39.3,29.93,South,178,1.0,2.0,89,0.00,,,0.05,Wunderground v.1.15,2013-11-10 12:59:00,
2013-11-10 08:01:00,42.4,39.4,29.93,South,178,0.0,1.0,89,0.00,,,0.05,Wunderground v.1.15,2013-11-10 13:01:00,
2013-11-10 08:03:00,42.4,39.4,29.93,South,178,1.0,3.0,89,0.00,,,0.05,Wunderground v.1.15,2013-11-10 13:03:00,
2013-11-10 08:04:00,42.5,39.5,29.92,South,178,0.0,3.0,89,0.00,,,0.05,Wunderground v.1.15,2013-11-10 13:04:00,
2013-11-10 08:06:00,42.5,39.5,29.92,South,176,1.0,4.0,89,0.00,,,0.05,Wunderground v.1.15,2013-11-10 13:06:00,
2013-11-10 08:07:00,42.6,39.6,29.93,SSW,194,0.0,7.0,89,0.00,,,0.05,Wunderground v.1.15,2013-11-10 13:07:00,
2013-11-10 08:08:00,42.7,39.7,29.93,South,173,2.0,7.0,89,0.00,,,0.05,Wunderground v.1.15,2013-11-10 13:08:00,
2013-11-10 08:09:00,42.8,39.8,29.93,SSE,165,2.0,7.0,89,0.00,,,0.05,Wunderground v.1.15,2013-11-10 13:09:00,
2013-11-10 08:11:00,42.9,39.9,29.93,SSW,203,5.0,7.0,89,0.00,,,0.05,Wunderground v.1.15,2013-11-10 13:11:00,
2013-11-10 08:12:00,43.1,39.8,29.93,South,184,2.0,7.0,88,0.00,,,0.05,Wunderground v.1.15,2013-11-10 13:12:00,
2013-11-10 08:13:00,43.1,39.8,29.93,South,186,3.0,7.0,88,0.00,,,0.05,Wunderground v.1.15,2013-11-10 13:13:00,
2013-11-10 08:14:00,43.2,39.9,29.93,SSW,196,3.0,7.0,88,0.00,,,0.05,Wunderground v.1.15,2013-11-10 13:14:00,
2013-11-10 08:15:00,43.3,40.0,29.93,SSW,203,1.0,7.0,88,0.00,,,0.05,Wunderground v.1.15,2013-11-10 13:15:00,
2013-11-10 08:16:00,43.4,40.1,29.93,SW,232,3.0,7.0,88,0.00,,,0.05,Wunderground v.1.15,2013-11-10 13:16:00,
2013-11-10 08:17:00,43.4,40.1,29.93,SW,219,2.0,7.0,88,0.00,,,0.05,Wunderground v.1.15,2013-11-10 13:17:00,
2013-11-10 08:19:00,43.6,40.0,29.92,WSW,258,1.0,7.0,87,0.00,,,0.05,Wunderground v.1.15,2013-11-10 13:19:00,
2013-11-10 08:20:00,43.7,40.1,29.92,South,185,2.0,3.0,87,0.00,,,0.05,Wunderground v.1.15,2013-11-10 13:20:00,
2013-11-10 08:21:00,43.8,39.9,29.92,South,190,2.0,4.0,86,0.00,,,0.05,Wunderground v.1.15,2013-11-10 13:21:00,
2013-11-10 08:22:00,43.9,40.0,29.92,SSW,209,3.0,4.0,86,0.00,,,0.05,Wunderground v.1.15,2013-11-10 13:22:00,
2013-11-10 08:25:00,44.1,40.2,29.92,SW,223,4.0,8.0,86,0.00,,,0.05,Wunderground v.1.15,2013-11-10 13:25:00,
2013-11-10 08:26:00,44.2,40.0,29.92,SSW,206,1.0,8.0,85,0.00,,,0.05,Wunderground v.1.15,2013-11-10 13:26:00,
2013-11-10 08:28:00,44.2,40.0,29.92,SW,236,9.0,9.0,85,0.00,,,0.05,Wunderground v.1.15,2013-11-10 13:28:00,
2013-11-10 08:30:00,44.3,40.1,29.93,WSW,247,5.0,5.0,85,0.00,,,0.05,Wunderground v.1.15,2013-11-10 13:30:00,
2013-11-10 08:31:00,44.3,40.1,29.92,South,178,2.0,5.0,85,0.00,,,0.05,Wunderground v.1.15,2013-11-10 13:31:00,
2013-11-10 08:33:00,44.3,40.1,29.92,SSW,213,3.0,5.0,85,0.00,,,0.05,Wunderground v.1.15,2013-11-10 13:33:00,
2013-11-10 08:34:00,44.4,40.2,29.93,SSW,213,2.0,5.0,85,0.00,,,0.05,Wunderground v.1.15,2013-11-10 13:34:00,
2013-11-10 08:35:00,44.4,39.9,29.93,WSW,248,1.0,5.0,84,0.00,,,0.05,Wunderground v.1.15,2013-11-10 13:35:00,
2013-11-10 08:37:00,44.4,40.2,29.92,WSW,248,0.0,5.0,85,0.00,,,0.05,Wunderground v.1.15,2013-11-10 13:37:00,
2013-11-10 08:38:00,44.5,40.3,29.92,WSW,248,0.0,5.0,85,0.00,,,0.05,Wunderground v.1.15,2013-11-10 13:38:00,
2013-11-10 08:39:00,44.5,40.3,29.92,WSW,248,1.0,5.0,85,0.00,,,0.05,Wunderground v.1.15,2013-11-10 13:39:00,
2013-11-10 08:40:00,44.5,40.3,29.92,SSW,209,3.0,3.0,85,0.00,,,0.05,Wunderground v.1.15,2013-11-10 13:40:00,
2013-11-10 08:41:00,44.5,40.3,29.92,SSW,209,2.0,4.0,85,0.00,,,0.05,Wunderground v.1.15,2013-11-10 13:41:00,
2013-11-10 08:42:00,44.6,40.1,29.92,SSW,209,4.0,4.0,84,0.00,,,0.05,Wunderground v.1.15,2013-11-10 13:42:00,
2013-11-10 08:44:00,44.7,39.9,29.92,SSW,202,1.0,4.0,83,0.00,,,0.05,Wunderground v.1.15,2013-11-10 13:44:00,
2013-11-10 08:45:00,44.7,39.9,29.92,SSW,202,0.0,4.0,83,0.00,,,0.05,Wunderground v.1.15,2013-11-10 13:45:00,
2013-11-10 08:46:00,44.8,40.0,29.92,SSW,202,4.0,4.0,83,0.00,,,0.05,Wunderground v.1.15,2013-11-10 13:46:00,
2013-11-10 08:47:00,44.8,40.0,29.92,SSW,202,0.0,4.0,83,0.00,,,0.05,Wunderground v.1.15,2013-11-10 13:47:00,
2013-11-10 08:49:00,44.9,40.0,29.92,SSW,198,0.0,4.0,83,0.00,,,0.05,Wunderground v.1.15,2013-11-10 13:49:00,
2013-11-10 08:50:00,44.9,40.0,29.92,SSW,198,1.0,2.0,83,0.00,,,0.05,Wunderground v.1.15,2013-11-10 13:50:00,
2013-11-10 08:51:00,44.9,40.0,29.92,SSW,198,1.0,2.0,83,0.00,,,0.05,Wunderground v.1.15,2013-11-10 13:51:00,
2013-11-10 08:52:00,45.0,40.1,29.92,SSW,213,1.0,4.0,83,0.00,,,0.05,Wunderground v.1.15,2013-11-10 13:52:00,
2013-11-10 08:53:00,45.0,40.1,29.92,SSW,213,0.0,4.0,83,0.00,,,0.05,Wunderground v.1.15,2013-11-10 13:53:00,
2013-11-10 08:54:00,45.2,40.3,29.92,SSE,152,4.0,4.0,83,0.00,,,0.05,Wunderground v.1.15,2013-11-10 13:54:00,
2013-11-10 08:55:00,45.3,40.4,29.92,South,180,3.0,5.0,83,0.00,,,0.05,Wunderground v.1.15,2013-11-10 13:55:00,
2013-11-10 08:56:00,45.4,40.5,29.92,South,180,1.0,5.0,83,0.00,,,0.05,Wunderground v.1.15,2013-11-10 13:56:00,
2013-11-10 08:58:00,45.6,40.7,29.92,SSE,167,1.0,5.0,83,0.00,,,0.05,Wunderground v.1.15,2013-11-10 13:58:00,
2013-11-10 08:59:00,45.9,40.7,29.92,South,186,5.0,7.0,82,0.00,,,0.05,Wunderground v.1.15,2013-11-10 13:59:00,
2013-11-10 09:00:00,46.1,40.9,29.91,South,175,2.0,4.0,82,0.00,,,0.05,Wunderground v.1.15,2013-11-10 14:00:00,
2013-11-10 09:01:00,46.3,41.1,29.91,SE,141,2.0,4.0,82,0.00,,,0.05,Wunderground v.1.15,2013-11-10 14:01:00,
2013-11-10 09:03:00,46.5,41.0,29.91,South,180,3.0,4.0,81,0.00,,,0.05,Wunderground v.1.15,2013-11-10 14:03:00,
2013-11-10 09:04:00,46.6,41.1,29.91,South,180,0.0,4.0,81,0.00,,,0.05,Wunderground v.1.15,2013-11-10 14:04:00,
2013-11-10 09:05:00,46.7,41.2,29.91,South,181,2.0,4.0,81,0.00,,,0.05,Wunderground v.1.15,2013-11-10 14:05:00,
2013-11-10 09:06:00,46.9,41.4,29.91,South,181,1.0,4.0,81,0.00,,,0.05,Wunderground v.1.15,2013-11-10 14:06:00,
2013-11-10 09:07:00,47.0,41.1,29.91,South,181,2.0,4.0,80,0.00,,,0.05,Wunderground v.1.15,2013-11-10 14:07:00,
2013-11-10 09:08:00,47.1,40.9,29.92,SSW,203,4.0,16.0,79,0.00,,,0.05,Wunderground v.1.15,2013-11-10 14:08:00,
2013-11-10 09:09:00,47.2,40.4,29.92,SSW,199,5.0,16.0,77,0.00,,,0.05,Wunderground v.1.15,2013-11-10 14:09:00,
2013-11-10 09:10:00,47.3,40.5,29.91,SSW,211,1.0,3.0,77,0.00,,,0.05,Wunderground v.1.15,2013-11-10 14:10:00,
2013-11-10 09:11:00,47.3,40.5,29.91,WSW,244,3.0,6.0,77,0.00,,,0.05,Wunderground v.1.15,2013-11-10 14:11:00,
2013-11-10 09:12:00,47.3,40.1,29.91,South,182,3.0,6.0,76,0.00,,,0.05,Wunderground v.1.15,2013-11-10 14:12:00,
2013-11-10 09:13:00,47.4,40.6,29.91,South,177,3.0,7.0,77,0.00,,,0.05,Wunderground v.1.15,2013-11-10 14:13:00,
2013-11-10 09:15:00,47.5,40.3,29.91,WSW,242,2.0,9.0,76,0.00,,,0.05,Wunderground v.1.15,2013-11-10 14:15:00,
2013-11-10 09:16:00,47.5,40.3,29.92,WSW,255,5.0,9.0,76,0.00,,,0.05,Wunderground v.1.15,2013-11-10 14:16:00,
2013-11-10 09:17:00,47.5,40.0,29.92,WSW,255,3.0,9.0,75,0.00,,,0.05,Wunderground v.1.15,2013-11-10 14:17:00,
2013-11-10 09:18:00,47.5,40.3,29.91,WSW,246,2.0,9.0,76,0.00,,,0.05,Wunderground v.1.15,2013-11-10 14:18:00,
2013-11-10 09:20:00,47.5,40.3,29.91,SW,223,6.0,6.0,76,0.00,,,0.05,Wunderground v.1.15,2013-11-10 14:20:00,
2013-11-10 09:21:00,47.5,40.3,29.91,SW,223,4.0,7.0,76,0.00,,,0.05,Wunderground v.1.15,2013-11-10 14:21:00,
2013-11-10 09:22:00,47.5,40.3,29.91,SW,215,3.0,7.0,76,0.00,,,0.05,Wunderground v.1.15,2013-11-10 14:22:00,
2013-11-10 09:23:00,47.5,40.0,29.91,SW,232,5.0,9.0,75,0.00,,,0.05,Wunderground v.1.15,2013-11-10 14:23:00,
2013-11-10 09:25:00,47.6,39.7,29.91,South,186,3.0,9.0,74,0.00,,,0.05,Wunderground v.1.15,2013-11-10 14:25:00,
2013-11-10 09:26:00,47.6,39.7,29.91,SSW,196,3.0,9.0,74,0.00,,,0.05,Wunderground v.1.15,2013-11-10 14:26:00,
2013-11-10 09:27:00,47.6,39.7,29.91,WSW,240,4.0,9.0,74,0.00,,,0.05,Wunderground v.1.15,2013-11-10 14:27:00,
2013-11-10 09:28:00,47.6,39.7,29.91,WSW,240,3.0,9.0,74,0.00,,,0.05,Wunderground v.1.15,2013-11-10 14:28:00,
2013-11-10 09:31:00,47.6,39.7,29.91,WSW,240,2.0,3.0,74,0.00,,,0.05,Wunderground v.1.15,2013-11-10 14:31:00,
2013-11-10 09:33:00,47.6,40.1,29.91,SW,225,3.0,5.0,75,0.00,,,0.05,Wunderground v.1.15,2013-11-10 14:33:00,
2013-11-10 09:34:00,47.6,40.1,29.91,WSW,245,1.0,5.0,75,0.00,,,0.05,Wunderground v.1.15,2013-11-10 14:34:00,
2013-11-10 09:36:00,47.7,39.8,29.91,SW,234,2.0,5.0,74,0.00,,,0.05,Wunderground v.1.15,2013-11-10 14:36:00,
2013-11-10 09:38:00,47.7,39.8,29.91,SW,227,3.0,9.0,74,0.00,,,0.05,Wunderground v.1.15,2013-11-10 14:38:00,
2013-11-10 09:39:00,47.7,39.8,29.91,SSW,213,1.0,9.0,74,0.00,,,0.05,Wunderground v.1.15,2013-11-10 14:39:00,
2013-11-10 09:41:00,47.8,40.6,29.91,SSW,213,0.0,2.0,76,0.00,,,0.05,Wunderground v.1.15,2013-11-10 14:41:00,
2013-11-10 09:42:00,47.8,40.6,29.91,WSW,256,10.0,11.0,76,0.00,,,0.05,Wunderground v.1.15,2013-11-10 14:42:00,
2013-11-10 09:43:00,47.8,40.3,29.91,SSW,198,3.0,11.0,75,0.00,,,0.05,Wunderground v.1.15,2013-11-10 14:43:00,
2013-11-10 09:45:00,47.8,39.6,29.90,SW,235,5.0,11.0,73,0.00,,,0.05,Wunderground v.1.15,2013-11-10 14:45:00,
2013-11-10 09:46:00,47.8,39.2,29.90,SW,224,4.0,11.0,72,0.00,,,0.05,Wunderground v.1.15,2013-11-10 14:46:00,
2013-11-10 09:47:00,47.9,39.7,29.90,SSW,205,1.0,11.0,73,0.00,,,0.05,Wunderground v.1.15,2013-11-10 14:47:00,
2013-11-10 09:48:00,47.9,39.7,29.90,SSW,204,0.0,11.0,73,0.00,,,0.05,Wunderground v.1.15,2013-11-10 14:48:00,
2013-11-10 09:50:00,48.1,39.1,29.90,WSW,242,3.0,3.0,71,0.00,,,0.05,Wunderground v.1.15,2013-11-10 14:50:00,
2013-11-10 09:51:00,48.2,38.9,29.90,SW,215,3.0,10.0,70,0.00,,,0.05,Wunderground v.1.15,2013-11-10 14:51:00,
2013-11-10 09:52:00,48.2,38.9,29.90,WSW,246,1.0,10.0,70,0.00,,,0.05,Wunderground v.1.15,2013-11-10 14:52:00,
2013-11-10 09:53:00,48.4,39.4,29.89,WSW,255,2.0,10.0,71,0.00,,,0.05,Wunderground v.1.15,2013-11-10 14:53:00,
2013-11-10 09:54:00,48.4,39.4,29.89,WSW,250,5.0,10.0,71,0.00,,,0.05,Wunderground v.1.15,2013-11-10 14:54:00,
2013-11-10 09:56:00,48.6,39.6,29.89,WSW,245,3.0,10.0,71,0.00,,,0.05,Wunderground v.1.15,2013-11-10 14:56:00,
2013-11-10 09:57:00,48.7,39.7,29.89,WSW,246,2.0,10.0,71,0.00,,,0.05,Wunderground v.1.15,2013-11-10 14:57:00,
2013-11-10 09:58:00,48.7,39.4,29.89,SW,233,6.0,10.0,70,0.00,,,0.05,Wunderground v.1.15,2013-11-10 14:58:00,
2013-11-10 09:59:00,48.8,38.7,29.89,WSW,240,3.0,10.0,68,0.00,,,0.05,Wunderground v.1.15,2013-11-10 14:59:00,
2013-11-10 10:01:00,48.9,38.8,29.89,NNW,331,2.0,6.0,68,0.00,,,0.05,Wunderground v.1.15,2013-11-10 15:01:00,
2013-11-10 10:02:00,48.9,38.8,29.89,WSW,241,6.0,7.0,68,0.00,,,0.05,Wunderground v.1.15,2013-11-10 15:02:00,
2013-11-10 10:03:00,49.0,38.9,29.89,WNW,291,4.0,8.0,68,0.00,,,0.05,Wunderground v.1.15,2013-11-10 15:03:00,
2013-11-10 10:04:00,49.0,38.5,29.89,WNW,282,4.0,8.0,67,0.00,,,0.05,Wunderground v.1.15,2013-11-10 15:04:00,
2013-11-10 10:06:00,49.1,39.0,29.90,SSW,203,2.0,8.0,68,0.00,,,0.05,Wunderground v.1.15,2013-11-10 15:06:00,
2013-11-10 10:07:00,49.2,39.1,29.90,NW,313,4.0,8.0,68,0.00,,,0.05,Wunderground v.1.15,2013-11-10 15:07:00,
2013-11-10 10:09:00,49.3,38.4,29.90,WSW,246,9.0,9.0,66,0.00,,,0.05,Wunderground v.1.15,2013-11-10 15:09:00,
2013-11-10 10:11:00,49.4,38.1,29.89,West,281,3.0,10.0,65,0.00,,,0.05,Wunderground v.1.15,2013-11-10 15:11:00,
2013-11-10 10:12:00,49.5,38.2,29.89,West,279,0.0,10.0,65,0.00,,,0.05,Wunderground v.1.15,2013-11-10 15:12:00,
2013-11-10 10:14:00,49.6,37.9,29.89,WSW,239,5.0,10.0,64,0.00,,,0.05,Wunderground v.1.15,2013-11-10 15:14:00,
2013-11-10 10:16:00,49.6,37.9,29.89,WSW,252,2.0,10.0,64,0.00,,,0.05,Wunderground v.1.15,2013-11-10 15:16:00,
2013-11-10 10:17:00,49.7,38.0,29.89,SSW,209,3.0,10.0,64,0.00,,,0.05,Wunderground v.1.15,2013-11-10 15:17:00,
2013-11-10 10:19:00,49.8,38.1,29.89,WSW,245,2.0,10.0,64,0.00,,,0.05,Wunderground v.1.15,2013-11-10 15:19:00,
2013-11-10 10:20:00,50.0,38.7,29.88,WSW,245,4.0,7.0,65,0.00,,,0.05,Wunderground v.1.15,2013-11-10 15:20:00,
2013-11-10 10:22:00,50.2,38.5,29.88,SSW,194,1.0,7.0,64,0.00,,,0.05,Wunderground v.1.15,2013-11-10 15:22:00,
2013-11-10 10:23:00,50.3,38.2,29.88,SW,224,3.0,7.0,63,0.00,,,0.05,Wunderground v.1.15,2013-11-10 15:23:00,
2013-11-10 10:24:00,50.4,38.3,29.88,WSW,246,5.0,7.0,63,0.00,,,0.05,Wunderground v.1.15,2013-11-10 15:24:00,
2013-11-10 10:26:00,50.5,38.4,29.88,SW,215,5.0,8.0,63,0.00,,,0.05,Wunderground v.1.15,2013-11-10 15:26:00,
2013-11-10 10:27:00,50.5,37.5,29.88,WSW,242,3.0,10.0,61,0.00,,,0.05,Wunderground v.1.15,2013-11-10 15:27:00,
2013-11-10 10:28:00,50.5,37.5,29.88,WNW,294,2.0,10.0,61,0.00,,,0.05,Wunderground v.1.15,2013-11-10 15:28:00,
2013-11-10 10:29:00,50.5,37.5,29.88,SW,218,2.0,10.0,61,0.00,,,0.05,Wunderground v.1.15,2013-11-10 15:29:00,
2013-11-10 10:30:00,50.5,37.5,29.88,WNW,299,3.0,4.0,61,0.00,,,0.05,Wunderground v.1.15,2013-11-10 15:30:00,
2013-11-10 10:31:00,50.5,38.0,29.88,WSW,257,5.0,6.0,62,0.00,,,0.05,Wunderground v.1.15,2013-11-10 15:31:00,
2013-11-10 10:32:00,50.5,37.5,29.88,WSW,240,4.0,7.0,61,0.00,,,0.05,Wunderground v.1.15,2013-11-10 15:32:00,
2013-11-10 10:33:00,50.5,38.0,29.88,WSW,242,4.0,7.0,62,0.00,,,0.05,Wunderground v.1.15,2013-11-10 15:33:00,
2013-11-10 10:34:00,50.5,37.5,29.88,South,191,4.0,10.0,61,0.00,,,0.05,Wunderground v.1.15,2013-11-10 15:34:00,
2013-11-10 10:35:00,50.6,37.6,29.88,SW,231,6.0,10.0,61,0.00,,,0.05,Wunderground v.1.15,2013-11-10 15:35:00,
2013-11-10 10:36:00,50.6,37.6,29.88,SW,233,2.0,10.0,61,0.00,,,0.05,Wunderground v.1.15,2013-11-10 15:36:00,
2013-11-10 10:37:00,50.7,37.7,29.88,WSW,257,9.0,10.0,61,0.00,,,0.05,Wunderground v.1.15,2013-11-10 15:37:00,
2013-11-10 10:38:00,50.8,37.8,29.88,WSW,254,4.0,10.0,61,0.00,,,0.05,Wunderground v.1.15,2013-11-10 15:38:00,
2013-11-10 10:39:00,50.8,37.8,29.88,WSW,254,3.0,10.0,61,0.00,,,0.05,Wunderground v.1.15,2013-11-10 15:39:00,
2013-11-10 10:41:00,50.9,37.9,29.88,WNW,284,3.0,6.0,61,0.00,,,0.05,Wunderground v.1.15,2013-11-10 15:41:00,
2013-11-10 10:42:00,50.9,37.9,29.88,WSW,251,2.0,7.0,61,0.00,,,0.05,Wunderground v.1.15,2013-11-10 15:42:00,
2013-11-10 10:44:00,51.0,38.0,29.88,WSW,252,4.0,8.0,61,0.00,,,0.05,Wunderground v.1.15,2013-11-10 15:44:00,
2013-11-10 10:45:00,51.0,37.6,29.88,SW,228,3.0,8.0,60,0.00,,,0.05,Wunderground v.1.15,2013-11-10 15:45:00,
2013-11-10 10:46:00,51.0,37.6,29.88,West,264,2.0,8.0,60,0.00,,,0.05,Wunderground v.1.15,2013-11-10 15:46:00,
2013-11-10 10:47:00,51.0,37.6,29.88,West,263,0.0,8.0,60,0.00,,,0.05,Wunderground v.1.15,2013-11-10 15:47:00,
2013-11-10 10:48:00,51.1,38.1,29.88,West,276,1.0,8.0,61,0.00,,,0.05,Wunderground v.1.15,2013-11-10 15:48:00,
2013-11-10 10:49:00,51.1,38.5,29.88,WSW,242,8.0,8.0,62,0.00,,,0.05,Wunderground v.1.15,2013-11-10 15:49:00,
2013-11-10 10:50:00,51.1,37.7,29.88,South,173,3.0,6.0,60,0.00,,,0.05,Wunderground v.1.15,2013-11-10 15:50:00,
2013-11-10 10:52:00,51.2,38.2,29.88,WSW,243,3.0,6.0,61,0.00,,,0.05,Wunderground v.1.15,2013-11-10 15:52:00,
2013-11-10 10:53:00,51.2,38.6,29.87,WSW,244,5.0,9.0,62,0.00,,,0.05,Wunderground v.1.15,2013-11-10 15:53:00,
2013-11-10 10:54:00,51.1,37.7,29.87,NW,304,7.0,9.0,60,0.00,,,0.05,Wunderground v.1.15,2013-11-10 15:54:00,
2013-11-10 10:55:00,51.1,37.7,29.87,WSW,247,7.0,13.0,60,0.00,,,0.05,Wunderground v.1.15,2013-11-10 15:55:00,
2013-11-10 10:57:00,51.0,37.6,29.87,West,267,7.0,13.0,60,0.00,,,0.05,Wunderground v.1.15,2013-11-10 15:57:00,
2013-11-10 10:58:00,51.0,37.6,29.87,West,261,3.0,13.0,60,0.00,,,0.05,Wunderground v.1.15,2013-11-10 15:58:00,
2013-11-10 10:59:00,51.0,37.6,29.87,WNW,299,2.0,13.0,60,0.00,,,0.05,Wunderground v.1.15,2013-11-10 15:59:00,
2013-11-10 11:00:00,51.0,37.6,29.87,NW,307,3.0,5.0,60,0.00,,,0.05,Wunderground v.1.15,2013-11-10 16:00:00,
2013-11-10 11:02:00,51.1,37.7,29.86,NW,304,2.0,6.0,60,0.00,,,0.05,Wunderground v.1.15,2013-11-10 16:02:00,
2013-11-10 11:03:00,51.2,38.2,29.86,SW,232,3.0,7.0,61,0.00,,,0.05,Wunderground v.1.15,2013-11-10 16:03:00,
2013-11-10 11:04:00,51.1,37.3,29.87,WSW,250,3.0,7.0,59,0.00,,,0.05,Wunderground v.1.15,2013-11-10 16:04:00,
2013-11-10 11:05:00,51.1,37.3,29.87,West,263,3.0,7.0,59,0.00,,,0.05,Wunderground v.1.15,2013-11-10 16:05:00,
2013-11-10 11:07:00,51.0,37.2,29.86,WNW,299,8.0,9.0,59,0.00,,,0.05,Wunderground v.1.15,2013-11-10 16:07:00,
2013-11-10 11:09:00,51.0,37.2,29.86,WNW,303,2.0,9.0,59,0.00,,,0.05,Wunderground v.1.15,2013-11-10 16:09:00,
2013-11-10 11:10:00,51.0,37.6,29.86,West,260,6.0,7.0,60,0.00,,,0.05,Wunderground v.1.15,2013-11-10 16:10:00,
2013-11-10 11:12:00,51.1,37.3,29.86,SW,228,2.0,7.0,59,0.00,,,0.05,Wunderground v.1.15,2013-11-10 16:12:00,
2013-11-10 11:14:00,51.2,37.4,29.86,SW,215,6.0,10.0,59,0.00,,,0.05,Wunderground v.1.15,2013-11-10 16:14:00,
2013-11-10 11:15:00,51.2,36.9,29.86,SSW,213,1.0,10.0,58,0.00,,,0.05,Wunderground v.1.15,2013-11-10 16:15:00,
2013-11-10 11:17:00,51.1,36.8,29.86,WSW,251,3.0,12.0,58,0.00,,,0.05,Wunderground v.1.15,2013-11-10 16:17:00,
2013-11-10 11:18:00,51.1,36.8,29.85,WNW,288,4.0,12.0,58,0.00,,,0.05,Wunderground v.1.15,2013-11-10 16:18:00,
2013-11-10 11:20:00,51.1,37.3,29.86,WSW,248,9.0,9.0,59,0.00,,,0.05,Wunderground v.1.15,2013-11-10 16:20:00,
2013-11-10 11:22:00,51.0,37.2,29.85,West,271,6.0,10.0,59,0.00,,,0.05,Wunderground v.1.15,2013-11-10 16:22:00,
2013-11-10 11:24:00,51.0,37.2,29.85,West,263,8.0,10.0,59,0.00,,,0.05,Wunderground v.1.15,2013-11-10 16:24:00,
2013-11-10 11:25:00,51.0,36.7,29.85,SW,225,2.0,10.0,58,0.00,,,0.05,Wunderground v.1.15,2013-11-10 16:25:00,
2013-11-10 11:28:00,51.1,36.8,29.85,West,273,6.0,10.0,58,0.00,,,0.05,Wunderground v.1.15,2013-11-10 16:28:00,
2013-11-10 11:29:00,51.1,36.8,29.85,West,265,3.0,10.0,58,0.00,,,0.05,Wunderground v.1.15,2013-11-10 16:29:00,
2013-11-10 11:30:00,51.1,36.8,29.85,WSW,241,6.0,8.0,58,0.00,,,0.05,Wunderground v.1.15,2013-11-10 16:30:00,
2013-11-10 11:31:00,51.1,36.8,29.85,West,259,10.0,10.0,58,0.00,,,0.05,Wunderground v.1.15,2013-11-10 16:31:00,
2013-11-10 11:33:00,51.0,36.7,29.85,SSW,204,1.0,10.0,58,0.00,,,0.05,Wunderground v.1.15,2013-11-10 16:33:00,
2013-11-10 11:35:00,51.1,37.3,29.84,South,186,2.0,10.0,59,0.00,,,0.05,Wunderground v.1.15,2013-11-10 16:35:00,
2013-11-10 11:36:00,51.1,37.3,29.84,NNE,24,3.0,10.0,59,0.00,,,0.05,Wunderground v.1.15,2013-11-10 16:36:00,
2013-11-10 11:38:00,51.2,36.9,29.84,South,190,4.0,10.0,58,0.00,,,0.05,Wunderground v.1.15,2013-11-10 16:38:00,
2013-11-10 11:40:00,51.2,36.9,29.84,SW,214,2.0,6.0,58,0.00,,,0.05,Wunderground v.1.15,2013-11-10 16:40:00,
2013-11-10 11:41:00,51.2,36.9,29.84,South,190,3.0,6.0,58,0.00,,,0.05,Wunderground v.1.15,2013-11-10 16:41:00,
2013-11-10 11:44:00,51.2,36.9,29.84,SSW,205,2.0,6.0,58,0.00,,,0.05,Wunderground v.1.15,2013-11-10 16:44:00,
2013-11-10 11:45:00,51.1,36.8,29.84,West,274,2.0,10.0,58,0.00,,,0.05,Wunderground v.1.15,2013-11-10 16:45:00,
2013-11-10 11:46:00,51.2,36.9,29.84,WNW,284,2.0,10.0,58,0.00,,,0.05,Wunderground v.1.15,2013-11-10 16:46:00,
2013-11-10 11:49:00,51.3,37.0,29.83,SW,223,3.0,10.0,58,0.00,,,0.05,Wunderground v.1.15,2013-11-10 16:49:00,
2013-11-10 11:51:00,51.6,37.7,29.83,West,265,3.0,5.0,59,0.00,,,0.05,Wunderground v.1.15,2013-11-10 16:51:00,
2013-11-10 11:52:00,51.7,36.9,29.83,West,277,3.0,5.0,57,0.00,,,0.05,Wunderground v.1.15,2013-11-10 16:52:00,
2013-11-10 11:54:00,51.9,37.1,29.83,NW,312,1.0,7.0,57,0.00,,,0.05,Wunderground v.1.15,2013-11-10 16:54:00,
2013-11-10 11:56:00,52.1,37.8,29.83,SW,231,2.0,7.0,58,0.00,,,0.05,Wunderground v.1.15,2013-11-10 16:56:00,
2013-11-10 11:58:00,52.3,37.5,29.83,NW,306,1.0,7.0,57,0.00,,,0.05,Wunderground v.1.15,2013-11-10 16:58:00,
2013-11-10 12:00:00,52.5,37.2,29.83,WSW,245,3.0,3.0,56,0.00,,,0.05,Wunderground v.1.15,2013-11-10 17:00:00,
2013-11-10 12:01:00,52.7,37.9,29.83,SSE,164,2.0,3.0,57,0.00,,,0.05,Wunderground v.1.15,2013-11-10 17:01:00,
2013-11-10 12:02:00,52.7,37.9,29.83,SSW,203,2.0,6.0,57,0.00,,,0.05,Wunderground v.1.15,2013-11-10 17:02:00,
2013-11-10 12:03:00,52.8,37.5,29.83,West,260,2.0,6.0,56,0.00,,,0.05,Wunderground v.1.15,2013-11-10 17:03:00,
2013-11-10 12:06:00,52.7,37.4,29.83,WSW,241,3.0,9.0,56,0.00,,,0.05,Wunderground v.1.15,2013-11-10 17:06:00,
2013-11-10 12:07:00,52.6,36.9,29.83,SW,219,6.0,9.0,55,0.00,,,0.05,Wunderground v.1.15,2013-11-10 17:07:00,
2013-11-10 12:08:00,52.4,36.7,29.83,SSW,192,2.0,9.0,55,0.00,,,0.05,Wunderground v.1.15,2013-11-10 17:08:00,
2013-11-10 12:11:00,52.3,37.1,29.82,South,181,3.0,7.0,56,0.00,,,0.05,Wunderground v.1.15,2013-11-10 17:11:00,
2013-11-10 12:12:00,52.3,37.5,29.82,SSW,192,4.0,7.0,57,0.00,,,0.05,Wunderground v.1.15,2013-11-10 17:12:00,
2013-11-10 12:13:00,52.3,37.5,29.82,SSW,194,3.0,7.0,57,0.00,,,0.05,Wunderground v.1.15,2013-11-10 17:13:00,
2013-11-10 12:16:00,52.2,37.0,29.82,WSW,244,4.0,10.0,56,0.00,,,0.05,Wunderground v.1.15,2013-11-10 17:16:00,
2013-11-10 12:17:00,52.1,36.9,29.82,SW,229,8.0,11.0,56,0.00,,,0.05,Wunderground v.1.15,2013-11-10 17:17:00,
2013-11-10 12:18:00,52.1,36.9,29.82,SW,215,2.0,11.0,56,0.00,,,0.05,Wunderground v.1.15,2013-11-10 17:18:00,
2013-11-10 12:21:00,52.2,37.4,29.82,South,182,0.0,4.0,57,0.00,,,0.05,Wunderground v.1.15,2013-11-10 17:21:00,
2013-11-10 12:22:00,52.3,37.5,29.82,SSW,198,2.0,4.0,57,0.00,,,0.05,Wunderground v.1.15,2013-11-10 17:22:00,
2013-11-10 12:23:00,52.3,38.0,29.82,SSW,198,1.0,4.0,58,0.00,,,0.05,Wunderground v.1.15,2013-11-10 17:23:00,
2013-11-10 12:26:00,52.4,37.6,29.82,WSW,252,2.0,6.0,57,0.00,,,0.05,Wunderground v.1.15,2013-11-10 17:26:00,
2013-11-10 12:27:00,52.4,37.6,29.82,WNW,292,3.0,6.0,57,0.00,,,0.05,Wunderground v.1.15,2013-11-10 17:27:00,
2013-11-10 12:28:00,52.4,37.2,29.82,SSW,194,1.0,6.0,56,0.00,,,0.05,Wunderground v.1.15,2013-11-10 17:28:00,
2013-11-10 12:29:00,52.4,37.2,29.82,WSW,238,5.0,8.0,56,0.00,,,0.05,Wunderground v.1.15,2013-11-10 17:29:00,
2013-11-10 12:31:00,52.4,37.2,29.82,WSW,237,2.0,7.0,56,0.00,,,0.05,Wunderground v.1.15,2013-11-10 17:31:00,
2013-11-10 12:32:00,52.4,37.6,29.82,WSW,250,5.0,7.0,57,0.00,,,0.05,Wunderground v.1.15,2013-11-10 17:32:00,
2013-11-10 12:33:00,52.3,37.1,29.82,WSW,250,4.0,8.0,56,0.00,,,0.05,Wunderground v.1.15,2013-11-10 17:33:00,
2013-11-10 12:34:00,52.3,37.1,29.82,West,265,2.0,8.0,56,0.00,,,0.05,Wunderground v.1.15,2013-11-10 17:34:00,
2013-11-10 12:36:00,52.3,37.5,29.82,West,265,2.0,8.0,57,0.00,,,0.05,Wunderground v.1.15,2013-11-10 17:36:00,
2013-11-10 12:37:00,52.3,37.5,29.82,West,264,2.0,8.0,57,0.00,,,0.05,Wunderground v.1.15,2013-11-10 17:37:00,
2013-11-10 12:38:00,52.3,37.5,29.82,WNW,286,2.0,8.0,57,0.00,,,0.05,Wunderground v.1.15,2013-11-10 17:38:00,
2013-11-10 12:39:00,52.3,37.5,29.82,West,262,6.0,8.0,57,0.00,,,0.05,Wunderground v.1.15,2013-11-10 17:39:00,
2013-11-10 12:40:00,52.3,37.5,29.82,WSW,243,2.0,3.0,57,0.00,,,0.05,Wunderground v.1.15,2013-11-10 17:40:00,
2013-11-10 12:41:00,52.3,37.5,29.82,South,187,3.0,5.0,57,0.00,,,0.05,Wunderground v.1.15,2013-11-10 17:41:00,
2013-11-10 12:43:00,52.3,37.1,29.82,South,169,1.0,5.0,56,0.00,,,0.05,Wunderground v.1.15,2013-11-10 17:43:00,
2013-11-10 12:44:00,52.3,37.1,29.82,WSW,251,3.0,5.0,56,0.00,,,0.05,Wunderground v.1.15,2013-11-10 17:44:00,
2013-11-10 12:45:00,52.3,37.1,29.82,WSW,251,3.0,5.0,56,0.00,,,0.05,Wunderground v.1.15,2013-11-10 17:45:00,
2013-11-10 12:47:00,52.2,37.0,29.82,SSW,209,1.0,5.0,56,0.00,,,0.05,Wunderground v.1.15,2013-11-10 17:47:00,
2013-11-10 12:48:00,52.2,37.0,29.82,SSW,203,3.0,5.0,56,0.00,,,0.05,Wunderground v.1.15,2013-11-10 17:48:00,
2013-11-10 12:49:00,52.2,37.4,29.82,SSW,207,4.0,5.0,57,0.00,,,0.05,Wunderground v.1.15,2013-11-10 17:49:00,
2013-11-10 12:50:00,52.2,37.4,29.82,SSE,167,4.0,4.0,57,0.00,,,0.05,Wunderground v.1.15,2013-11-10 17:50:00,
2013-11-10 12:52:00,52.1,37.3,29.82,NW,309,2.0,5.0,57,0.00,,,0.05,Wunderground v.1.15,2013-11-10 17:52:00,
2013-11-10 12:53:00,52.1,37.3,29.82,NW,309,2.0,5.0,57,0.00,,,0.05,Wunderground v.1.15,2013-11-10 17:53:00,
2013-11-10 12:55:00,52.1,37.3,29.82,NW,320,4.0,7.0,57,0.00,,,0.05,Wunderground v.1.15,2013-11-10 17:55:00,
2013-11-10 12:57:00,52.1,37.3,29.82,WSW,245,3.0,9.0,57,0.00,,,0.05,Wunderground v.1.15,2013-11-10 17:57:00,
2013-11-10 12:58:00,52.1,37.3,29.82,WSW,253,10.0,10.0,57,0.00,,,0.05,Wunderground v.1.15,2013-11-10 17:58:00,
2013-11-10 13:00:00,52.1,38.2,29.82,NW,306,1.0,4.0,59,0.00,,,0.05,Wunderground v.1.15,2013-11-10 18:00:00,
2013-11-10 13:01:00,52.1,37.8,29.82,West,273,2.0,7.0,58,0.00,,,0.05,Wunderground v.1.15,2013-11-10 18:01:00,
2013-11-10 13:02:00,52.2,37.4,29.83,WNW,298,2.0,7.0,57,0.00,,,0.05,Wunderground v.1.15,2013-11-10 18:02:00,
2013-11-10 13:03:00,52.3,43.2,29.83,WNW,286,7.0,8.0,71,0.00,,,0.05,Wunderground v.1.15,2013-11-10 18:03:00,
2013-11-10 13:05:00,52.4,38.9,29.82,SW,228,5.0,11.0,60,0.00,,,0.05,Wunderground v.1.15,2013-11-10 18:05:00,
2013-11-10 13:06:00,52.4,37.6,29.82,West,263,3.0,11.0,57,0.00,,,0.05,Wunderground v.1.15,2013-11-10 18:06:00,
2013-11-10 13:07:00,52.3,37.5,29.82,WNW,285,1.0,11.0,57,0.00,,,0.05,Wunderground v.1.15,2013-11-10 18:07:00,
2013-11-10 13:08:00,52.3,39.7,29.82,WNW,288,3.0,11.0,62,0.00,,,0.05,Wunderground v.1.15,2013-11-10 18:08:00,
2013-11-10 13:10:00,52.2,37.4,29.82,WNW,298,4.0,6.0,57,0.00,,,0.05,Wunderground v.1.15,2013-11-10 18:10:00,
2013-11-10 13:11:00,52.2,37.4,29.82,WNW,294,4.0,8.0,57,0.00,,,0.05,Wunderground v.1.15,2013-11-10 18:11:00,
2013-11-10 13:12:00,52.1,37.3,29.82,WNW,292,3.0,8.0,57,0.00,,,0.05,Wunderground v.1.15,2013-11-10 18:12:00,
2013-11-10 13:13:00,52.1,37.3,29.82,WNW,292,3.0,8.0,57,0.00,,,0.05,Wunderground v.1.15,2013-11-10 18:13:00,
2013-11-10 13:15:00,52.1,37.3,29.82,WNW,294,4.0,12.0,57,0.00,,,0.05,Wunderground v.1.15,2013-11-10 18:15:00,
2013-11-10 13:16:00,52.1,37.8,29.82,NW,316,9.0,12.0,58,0.00,,,0.05,Wunderground v.1.15,2013-11-10 18:16:00,
2013-11-10 13:17:00,52.1,38.2,29.82,NW,306,10.0,12.0,59,0.00,,,0.05,Wunderground v.1.15,2013-11-10 18:17:00,
2013-11-10 13:18:00,52.1,37.3,29.82,West,263,8.0,12.0,57,0.00,,,0.05,Wunderground v.1.15,2013-11-10 18:18:00,
2013-11-10 13:21:00,52.1,40.7,29.82,WSW,258,9.0,9.0,65,0.00,,,0.05,Wunderground v.1.15,2013-11-10 18:21:00,
2013-11-10 13:22:00,52.2,40.8,29.82,NNW,328,2.0,9.0,65,0.00,,,0.05,Wunderground v.1.15,2013-11-10 18:22:00,
2013-11-10 13:23:00,52.2,37.9,29.82,WNW,288,5.0,9.0,58,0.00,,,0.05,Wunderground v.1.15,2013-11-10 18:23:00,
2013-11-10 13:27:00,51.9,36.2,29.82,West,263,11.0,17.0,55,0.00,,,0.05,Wunderground v.1.15,2013-11-10 18:27:00,
2013-11-10 13:28:00,51.8,36.6,29.82,WNW,286,7.0,17.0,56,0.00,,,0.05,Wunderground v.1.15,2013-11-10 18:28:00,
2013-11-10 13:29:00,51.8,36.6,29.82,WSW,248,7.0,17.0,56,0.00,,,0.05,Wunderground v.1.15,2013-11-10 18:29:00,
2013-11-10 13:32:00,51.6,36.4,29.82,WNW,301,4.0,9.0,56,0.00,,,0.05,Wunderground v.1.15,2013-11-10 18:32:00,
2013-11-10 13:33:00,51.5,36.3,29.82,NE,55,2.0,12.0,56,0.00,,,0.05,Wunderground v.1.15,2013-11-10 18:33:00,
2013-11-10 13:34:00,51.5,36.3,29.82,NE,42,14.0,18.0,56,0.00,,,0.05,Wunderground v.1.15,2013-11-10 18:34:00,
2013-11-10 13:37:00,51.2,35.6,29.82,WNW,290,20.0,20.0,55,0.00,,,0.05,Wunderground v.1.15,2013-11-10 18:37:00,
2013-11-10 13:38:00,51.1,35.5,29.82,WNW,284,4.0,20.0,55,0.00,,,0.05,Wunderground v.1.15,2013-11-10 18:38:00,
2013-11-10 13:39:00,51.0,35.4,29.82,SW,232,11.0,20.0,55,0.00,,,0.05,Wunderground v.1.15,2013-11-10 18:39:00,
2013-11-10 13:40:00,50.9,35.7,29.82,West,263,11.0,13.0,56,0.00,,,0.05,Wunderground v.1.15,2013-11-10 18:40:00,
2013-11-10 13:43:00,50.7,35.6,29.82,West,275,7.0,16.0,56,0.00,,,0.05,Wunderground v.1.15,2013-11-10 18:43:00,
2013-11-10 13:44:00,50.7,35.6,29.82,WNW,302,8.0,18.0,56,0.00,,,0.05,Wunderground v.1.15,2013-11-10 18:44:00,
2013-11-10 13:45:00,50.6,35.9,29.83,West,264,10.0,18.0,57,0.00,,,0.05,Wunderground v.1.15,2013-11-10 18:45:00,
2013-11-10 13:48:00,50.4,35.7,29.83,WNW,299,5.0,20.0,57,0.00,,,0.05,Wunderground v.1.15,2013-11-10 18:48:00,
2013-11-10 13:49:00,50.4,36.2,29.83,West,262,6.0,20.0,58,0.00,,,0.05,Wunderground v.1.15,2013-11-10 18:49:00,
2013-11-10 13:50:00,50.3,36.1,29.83,West,265,9.0,10.0,58,0.00,,,0.05,Wunderground v.1.15,2013-11-10 18:50:00,
2013-11-10 13:54:00,50.0,36.2,29.83,WSW,247,13.0,14.0,59,0.00,,,0.05,Wunderground v.1.15,2013-11-10 18:54:00,
2013-11-10 13:55:00,49.9,36.1,29.83,NW,306,14.0,14.0,59,0.00,,,0.05,Wunderground v.1.15,2013-11-10 18:55:00,
2013-11-10 13:59:00,49.4,36.1,29.83,West,259,15.0,17.0,60,0.00,,,0.05,Wunderground v.1.15,2013-11-10 18:59:00,
2013-11-10 14:00:00,49.3,36.0,29.83,WNW,298,8.0,13.0,60,0.00,,,0.05,Wunderground v.1.15,2013-11-10 19:00:00,
2013-11-10 14:01:00,49.1,36.2,29.83,NNW,331,11.0,15.0,61,0.00,,,0.05,Wunderground v.1.15,2013-11-10 19:01:00,
2013-11-10 14:04:00,48.8,36.4,29.83,West,269,9.0,16.0,62,0.00,,,0.05,Wunderground v.1.15,2013-11-10 19:04:00,
2013-11-10 14:05:00,48.7,36.3,29.83,WNW,285,6.0,16.0,62,0.00,,,0.05,Wunderground v.1.15,2013-11-10 19:05:00,
2013-11-10 14:07:00,48.5,36.5,29.83,NW,305,2.0,16.0,63,0.00,,,0.05,Wunderground v.1.15,2013-11-10 19:07:00,
2013-11-10 14:10:00,48.3,36.7,29.83,NW,307,7.0,7.0,64,0.00,,,0.05,Wunderground v.1.15,2013-11-10 19:10:00,
2013-11-10 14:12:00,48.2,37.0,29.83,NNW,341,6.0,15.0,65,0.00,,,0.05,Wunderground v.1.15,2013-11-10 19:12:00,
2013-11-10 14:15:00,48.0,36.4,29.83,NNW,330,5.0,15.0,64,0.00,,,0.05,Wunderground v.1.15,2013-11-10 19:15:00,
2013-11-10 14:16:00,48.0,36.8,29.83,NW,312,8.0,15.0,65,0.00,,,0.05,Wunderground v.1.15,2013-11-10 19:16:00,
2013-11-10 14:17:00,47.9,36.7,29.83,WNW,292,5.0,15.0,65,0.00,,,0.05,Wunderground v.1.15,2013-11-10 19:17:00,
2013-11-10 14:20:00,47.9,36.7,29.83,NW,316,4.0,10.0,65,0.00,,,0.05,Wunderground v.1.15,2013-11-10 19:20:00,
2013-11-10 14:21:00,48.0,36.8,29.83,NNW,345,11.0,13.0,65,0.00,,,0.05,Wunderground v.1.15,2013-11-10 19:21:00,
2013-11-10 14:23:00,48.0,37.2,29.83,NW,310,4.0,16.0,66,0.00,,,0.05,Wunderground v.1.15,2013-11-10 19:23:00,
2013-11-10 14:25:00,48.1,36.9,29.83,NW,318,4.0,16.0,65,0.00,,,0.05,Wunderground v.1.15,2013-11-10 19:25:00,
2013-11-10 14:26:00,48.1,36.9,29.83,WSW,256,4.0,16.0,65,0.00,,,0.05,Wunderground v.1.15,2013-11-10 19:26:00,
2013-11-10 14:28:00,48.1,36.5,29.83,WSW,250,3.0,16.0,64,0.00,,,0.05,Wunderground v.1.15,2013-11-10 19:28:00,
2013-11-10 14:30:00,48.1,37.3,29.83,NW,317,4.0,6.0,66,0.00,,,0.05,Wunderground v.1.15,2013-11-10 19:30:00,
2013-11-10 14:31:00,48.1,37.3,29.83,NW,314,2.0,6.0,66,0.00,,,0.05,Wunderground v.1.15,2013-11-10 19:31:00,
2013-11-10 14:32:00,48.2,37.8,29.83,West,281,1.0,6.0,67,0.00,,,0.05,Wunderground v.1.15,2013-11-10 19:32:00,
2013-11-10 14:33:00,48.2,37.0,29.83,West,266,4.0,8.0,65,0.00,,,0.05,Wunderground v.1.15,2013-11-10 19:33:00,
2013-11-10 14:35:00,48.2,37.4,29.84,NNE,20,8.0,13.0,66,0.00,,,0.05,Wunderground v.1.15,2013-11-10 19:35:00,
2013-11-10 14:36:00,48.2,36.6,29.84,WNW,297,12.0,15.0,64,0.00,,,0.05,Wunderground v.1.15,2013-11-10 19:36:00,
2013-11-10 14:37:00,48.2,36.6,29.84,WSW,243,8.0,15.0,64,0.00,,,0.05,Wunderground v.1.15,2013-11-10 19:37:00,
2013-11-10 14:39:00,48.0,36.0,29.84,NW,307,9.0,15.0,63,0.00,,,0.05,Wunderground v.1.15,2013-11-10 19:39:00,
2013-11-10 14:40:00,47.9,35.9,29.84,WNW,299,4.0,6.0,63,0.00,,,0.05,Wunderground v.1.15,2013-11-10 19:40:00,
2013-11-10 14:41:00,47.9,36.7,29.84,WNW,282,6.0,10.0,65,0.00,,,0.05,Wunderground v.1.15,2013-11-10 19:41:00,
2013-11-10 14:42:00,47.9,36.7,29.84,WSW,258,9.0,14.0,65,0.00,,,0.05,Wunderground v.1.15,2013-11-10 19:42:00,
2013-11-10 14:44:00,48.0,36.4,29.84,NW,305,5.0,14.0,64,0.00,,,0.05,Wunderground v.1.15,2013-11-10 19:44:00,
2013-11-10 14:45:00,47.9,36.3,29.84,WNW,286,4.0,14.0,64,0.00,,,0.05,Wunderground v.1.15,2013-11-10 19:45:00,
2013-11-10 14:46:00,47.9,36.3,29.84,West,266,2.0,14.0,64,0.00,,,0.05,Wunderground v.1.15,2013-11-10 19:46:00,
2013-11-10 14:47:00,47.9,35.9,29.84,WSW,255,11.0,14.0,63,0.00,,,0.05,Wunderground v.1.15,2013-11-10 19:47:00,
2013-11-10 14:49:00,47.8,35.8,29.84,WSW,246,12.0,14.0,63,0.00,,,0.05,Wunderground v.1.15,2013-11-10 19:49:00,
2013-11-10 14:50:00,47.8,36.2,29.84,West,275,13.0,14.0,64,0.00,,,0.05,Wunderground v.1.15,2013-11-10 19:50:00,
2013-11-10 14:51:00,47.7,35.7,29.84,WNW,301,7.0,14.0,63,0.00,,,0.05,Wunderground v.1.15,2013-11-10 19:51:00,
2013-11-10 14:52:00,47.7,35.7,29.84,West,260,6.0,14.0,63,0.00,,,0.05,Wunderground v.1.15,2013-11-10 19:52:00,
2013-11-10 14:55:00,47.6,35.6,29.84,SW,224,10.0,16.0,63,0.00,,,0.05,Wunderground v.1.15,2013-11-10 19:55:00,
2013-11-10 14:56:00,47.5,35.5,29.84,WNW,282,6.0,22.0,63,0.00,,,0.05,Wunderground v.1.15,2013-11-10 19:56:00,
2013-11-10 14:57:00,47.5,35.5,29.84,WNW,292,7.0,22.0,63,0.00,,,0.05,Wunderground v.1.15,2013-11-10 19:57:00,
2013-11-10 14:58:00,47.5,35.5,29.84,WNW,290,8.0,22.0,63,0.00,,,0.05,Wunderground v.1.15,2013-11-10 19:58:00,
2013-11-10 15:00:00,47.4,35.4,29.84,WSW,242,5.0,9.0,63,0.00,,,0.05,Wunderground v.1.15,2013-11-10 20:00:00,
2013-11-10 15:02:00,47.2,35.2,29.84,NW,325,5.0,16.0,63,0.00,,,0.05,Wunderground v.1.15,2013-11-10 20:02:00,
2013-11-10 15:03:00,47.2,35.2,29.84,WNW,293,4.0,16.0,63,0.00,,,0.05,Wunderground v.1.15,2013-11-10 20:03:00,
2013-11-10 15:06:00,47.2,35.6,29.84,SW,232,6.0,16.0,64,0.00,,,0.05,Wunderground v.1.15,2013-11-10 20:06:00,
2013-11-10 15:07:00,47.1,35.1,29.84,WSW,237,4.0,16.0,63,0.00,,,0.05,Wunderground v.1.15,2013-11-10 20:07:00,
2013-11-10 15:08:00,47.1,35.1,29.84,WNW,302,7.0,16.0,63,0.00,,,0.05,Wunderground v.1.15,2013-11-10 20:08:00,
2013-11-10 15:11:00,47.2,35.6,29.84,SW,225,3.0,10.0,64,0.00,,,0.05,Wunderground v.1.15,2013-11-10 20:11:00,
2013-11-10 15:12:00,47.1,34.7,29.84,NW,308,9.0,10.0,62,0.00,,,0.05,Wunderground v.1.15,2013-11-10 20:12:00,
2013-11-10 15:13:00,47.1,34.7,29.84,WNW,285,3.0,10.0,62,0.00,,,0.05,Wunderground v.1.15,2013-11-10 20:13:00,
2013-11-10 15:14:00,47.1,34.7,29.84,South,187,6.0,10.0,62,0.00,,,0.05,Wunderground v.1.15,2013-11-10 20:14:00,
2013-11-10 15:16:00,47.0,34.6,29.84,NNW,327,1.0,12.0,62,0.00,,,0.05,Wunderground v.1.15,2013-11-10 20:16:00,
2013-11-10 15:17:00,47.0,35.0,29.84,NW,312,3.0,12.0,63,0.00,,,0.05,Wunderground v.1.15,2013-11-10 20:17:00,
2013-11-10 15:18:00,46.9,35.0,29.83,WSW,258,4.0,12.0,63,0.00,,,0.05,Wunderground v.1.15,2013-11-10 20:18:00,
2013-11-10 15:19:00,46.9,35.0,29.83,West,261,7.0,12.0,63,0.00,,,0.05,Wunderground v.1.15,2013-11-10 20:19:00,
2013-11-10 15:21:00,46.8,34.5,29.83,West,268,7.0,9.0,62,0.00,,,0.05,Wunderground v.1.15,2013-11-10 20:21:00,
2013-11-10 15:22:00,46.8,34.5,29.83,SSE,149,3.0,9.0,62,0.00,,,0.05,Wunderground v.1.15,2013-11-10 20:22:00,
2013-11-10 15:23:00,46.8,34.9,29.83,West,259,4.0,9.0,63,0.00,,,0.05,Wunderground v.1.15,2013-11-10 20:23:00,
2013-11-10 15:24:00,46.8,34.9,29.83,WSW,242,8.0,9.0,63,0.00,,,0.05,Wunderground v.1.15,2013-11-10 20:24:00,
2013-11-10 15:26:00,46.8,34.9,29.83,SW,235,7.0,10.0,63,0.00,,,0.05,Wunderground v.1.15,2013-11-10 20:26:00,
2013-11-10 15:27:00,46.8,34.9,29.83,WNW,302,4.0,10.0,63,0.00,,,0.05,Wunderground v.1.15,2013-11-10 20:27:00,
2013-11-10 15:28:00,46.7,34.8,29.83,WSW,244,12.0,12.0,63,0.00,,,0.05,Wunderground v.1.15,2013-11-10 20:28:00,
2013-11-10 15:29:00,46.7,34.8,29.83,SW,234,4.0,13.0,63,0.00,,,0.05,Wunderground v.1.15,2013-11-10 20:29:00,
2013-11-10 15:31:00,46.7,35.2,29.83,South,182,1.0,8.0,64,0.00,,,0.05,Wunderground v.1.15,2013-11-10 20:31:00,
2013-11-10 15:32:00,46.7,34.8,29.83,WSW,252,7.0,9.0,63,0.00,,,0.05,Wunderground v.1.15,2013-11-10 20:32:00,
2013-11-10 15:33:00,46.7,34.8,29.84,West,263,6.0,9.0,63,0.00,,,0.05,Wunderground v.1.15,2013-11-10 20:33:00,
2013-11-10 15:34:00,46.7,34.8,29.84,WSW,252,5.0,9.0,63,0.00,,,0.05,Wunderground v.1.15,2013-11-10 20:34:00,
2013-11-10 15:36:00,46.6,34.7,29.84,NW,316,4.0,11.0,63,0.00,,,0.05,Wunderground v.1.15,2013-11-10 20:36:00,
2013-11-10 15:37:00,46.6,34.7,29.83,WSW,243,8.0,11.0,63,0.00,,,0.05,Wunderground v.1.15,2013-11-10 20:37:00,
2013-11-10 15:38:00,46.6,34.7,29.84,WSW,256,7.0,11.0,63,0.00,,,0.05,Wunderground v.1.15,2013-11-10 20:38:00,
2013-11-10 15:39:00,46.6,34.7,29.84,West,259,0.0,11.0,63,0.00,,,0.05,Wunderground v.1.15,2013-11-10 20:39:00,
2013-11-10 15:41:00,46.5,34.6,29.83,South,179,2.0,13.0,63,0.00,,,0.05,Wunderground v.1.15,2013-11-10 20:41:00,
2013-11-10 15:42:00,46.5,34.6,29.83,WSW,249,8.0,13.0,63,0.00,,,0.05,Wunderground v.1.15,2013-11-10 20:42:00,
2013-11-10 15:43:00,46.5,34.6,29.84,WNW,293,3.0,13.0,63,0.00,,,0.05,Wunderground v.1.15,2013-11-10 20:43:00,
2013-11-10 15:44:00,46.5,35.0,29.84,West,261,1.0,13.0,64,0.00,,,0.05,Wunderground v.1.15,2013-11-10 20:44:00,
2013-11-10 15:45:00,46.5,35.0,29.84,SW,236,1.0,13.0,64,0.00,,,0.05,Wunderground v.1.15,2013-11-10 20:45:00,
2013-11-10 15:46:00,46.5,35.0,29.83,WSW,255,2.0,13.0,64,0.00,,,0.05,Wunderground v.1.15,2013-11-10 20:46:00,
2013-11-10 15:47:00,46.4,34.5,29.84,WSW,245,4.0,13.0,63,0.00,,,0.05,Wunderground v.1.15,2013-11-10 20:47:00,
2013-11-10 15:48:00,46.4,34.5,29.84,WSW,254,3.0,13.0,63,0.00,,,0.05,Wunderground v.1.15,2013-11-10 20:48:00,
2013-11-10 15:50:00,46.4,34.5,29.84,WSW,244,0.0,4.0,63,0.00,,,0.05,Wunderground v.1.15,2013-11-10 20:50:00,
2013-11-10 15:52:00,46.4,34.5,29.84,West,278,2.0,8.0,63,0.00,,,0.05,Wunderground v.1.15,2013-11-10 20:52:00,
2013-11-10 15:53:00,46.4,34.5,29.84,WNW,288,2.0,8.0,63,0.00,,,0.05,Wunderground v.1.15,2013-11-10 20:53:00,
2013-11-10 15:55:00,46.3,34.4,29.84,West,259,3.0,8.0,63,0.00,,,0.05,Wunderground v.1.15,2013-11-10 20:55:00,
2013-11-10 15:57:00,46.3,34.4,29.84,WSW,254,3.0,8.0,63,0.00,,,0.05,Wunderground v.1.15,2013-11-10 20:57:00,
2013-11-10 15:58:00,46.3,34.8,29.85,South,186,3.0,8.0,64,0.00,,,0.05,Wunderground v.1.15,2013-11-10 20:58:00,
2013-11-10 15:59:00,46.3,34.4,29.85,WSW,240,8.0,8.0,63,0.00,,,0.05,Wunderground v.1.15,2013-11-10 20:59:00,
2013-11-10 16:00:00,46.3,34.4,29.85,WSW,252,4.0,9.0,63,0.00,,,0.05,Wunderground v.1.15,2013-11-10 21:00:00,
2013-11-10 16:01:00,46.3,34.4,29.85,West,265,3.0,9.0,63,0.00,,,0.05,Wunderground v.1.15,2013-11-10 21:01:00,
2013-11-10 16:02:00,46.3,34.4,29.85,West,259,2.0,9.0,63,0.00,,,0.05,Wunderground v.1.15,2013-11-10 21:02:00,
2013-11-10 16:03:00,46.3,34.8,29.85,South,184,3.0,9.0,64,0.00,,,0.05,Wunderground v.1.15,2013-11-10 21:03:00,
2013-11-10 16:04:00,46.3,34.8,29.85,SW,229,4.0,9.0,64,0.00,,,0.05,Wunderground v.1.15,2013-11-10 21:04:00,
2013-11-10 16:05:00,46.2,34.7,29.85,ENE,78,4.0,9.0,64,0.00,,,0.05,Wunderground v.1.15,2013-11-10 21:05:00,
2013-11-10 16:06:00,46.2,34.7,29.85,NW,308,5.0,9.0,64,0.00,,,0.05,Wunderground v.1.15,2013-11-10 21:06:00,
2013-11-10 16:07:00,46.2,34.7,29.85,WNW,285,9.0,14.0,64,0.00,,,0.05,Wunderground v.1.15,2013-11-10 21:07:00,
2013-11-10 16:08:00,46.2,34.7,29.85,West,270,12.0,15.0,64,0.00,,,0.05,Wunderground v.1.15,2013-11-10 21:08:00,
2013-11-10 16:09:00,46.2,34.7,29.85,SSE,153,4.0,15.0,64,0.00,,,0.05,Wunderground v.1.15,2013-11-10 21:09:00,
2013-11-10 16:10:00,46.2,34.7,29.85,West,267,3.0,5.0,64,0.00,,,0.05,Wunderground v.1.15,2013-11-10 21:10:00,
2013-11-10 16:11:00,46.2,34.7,29.84,South,173,2.0,5.0,64,0.00,,,0.05,Wunderground v.1.15,2013-11-10 21:11:00,
2013-11-10 16:13:00,46.2,34.7,29.85,SSW,210,5.0,12.0,64,0.00,,,0.05,Wunderground v.1.15,2013-11-10 21:13:00,
2013-11-10 16:15:00,46.1,35.0,29.85,SW,230,3.0,12.0,65,0.00,,,0.05,Wunderground v.1.15,2013-11-10 21:15:00,
2013-11-10 16:16:00,46.1,35.0,29.85,WSW,258,7.0,15.0,65,0.00,,,0.05,Wunderground v.1.15,2013-11-10 21:16:00,
2013-11-10 16:18:00,46.0,34.9,29.85,SW,232,8.0,15.0,65,0.00,,,0.05,Wunderground v.1.15,2013-11-10 21:18:00,
2013-11-10 16:20:00,46.0,35.3,29.85,WSW,254,5.0,5.0,66,0.00,,,0.05,Wunderground v.1.15,2013-11-10 21:20:00,
2013-11-10 16:21:00,46.0,35.3,29.85,West,259,3.0,9.0,66,0.00,,,0.05,Wunderground v.1.15,2013-11-10 21:21:00,
2013-11-10 16:23:00,46.0,35.7,29.85,West,265,7.0,18.0,67,0.00,,,0.05,Wunderground v.1.15,2013-11-10 21:23:00,
2013-11-10 16:24:00,46.0,35.7,29.85,WNW,285,7.0,18.0,67,0.00,,,0.05,Wunderground v.1.15,2013-11-10 21:24:00,
2013-11-10 16:25:00,46.0,35.3,29.85,WSW,252,8.0,18.0,66,0.00,,,0.05,Wunderground v.1.15,2013-11-10 21:25:00,
2013-11-10 16:26:00,46.0,35.3,29.85,WNW,293,3.0,18.0,66,0.00,,,0.05,Wunderground v.1.15,2013-11-10 21:26:00,
2013-11-10 16:27:00,46.0,35.3,29.85,WSW,252,3.0,18.0,66,0.00,,,0.05,Wunderground v.1.15,2013-11-10 21:27:00,
2013-11-10 16:29:00,46.0,36.4,29.85,WNW,301,2.0,18.0,69,0.00,,,0.05,Wunderground v.1.15,2013-11-10 21:29:00,
2013-11-10 16:30:00,46.0,36.0,29.86,NNW,337,3.0,7.0,68,0.00,,,0.05,Wunderground v.1.15,2013-11-10 21:30:00,
2013-11-10 16:31:00,46.0,35.3,29.86,West,281,2.0,7.0,66,0.00,,,0.05,Wunderground v.1.15,2013-11-10 21:31:00,
2013-11-10 16:32:00,45.9,35.2,29.86,WSW,245,8.0,9.0,66,0.00,,,0.05,Wunderground v.1.15,2013-11-10 21:32:00,
2013-11-10 16:34:00,45.8,35.1,29.86,WSW,252,3.0,9.0,66,0.00,,,0.05,Wunderground v.1.15,2013-11-10 21:34:00,
2013-11-10 16:36:00,45.7,35.0,29.86,NW,319,5.0,13.0,66,0.00,,,0.05,Wunderground v.1.15,2013-11-10 21:36:00,
2013-11-10 16:37:00,45.7,35.0,29.86,WSW,243,5.0,14.0,66,0.00,,,0.05,Wunderground v.1.15,2013-11-10 21:37:00,
2013-11-10 16:39:00,45.6,34.9,29.86,SW,231,1.0,16.0,66,0.00,,,0.05,Wunderground v.1.15,2013-11-10 21:39:00,
2013-11-10 16:41:00,45.6,34.9,29.86,WNW,296,3.0,8.0,66,0.00,,,0.05,Wunderground v.1.15,2013-11-10 21:41:00,
2013-11-10 16:42:00,45.5,35.2,29.86,West,263,9.0,10.0,67,0.00,,,0.05,Wunderground v.1.15,2013-11-10 21:42:00,
2013-11-10 16:44:00,45.5,35.2,29.86,WNW,298,3.0,11.0,67,0.00,,,0.05,Wunderground v.1.15,2013-11-10 21:44:00,
2013-11-10 16:45:00,45.5,35.2,29.86,West,267,10.0,13.0,67,0.00,,,0.05,Wunderground v.1.15,2013-11-10 21:45:00,
2013-11-10 16:46:00,45.4,35.1,29.86,WSW,248,4.0,13.0,67,0.00,,,0.05,Wunderground v.1.15,2013-11-10 21:46:00,
2013-11-10 16:47:00,45.4,35.1,29.86,WNW,294,2.0,13.0,67,0.00,,,0.05,Wunderground v.1.15,2013-11-10 21:47:00,
2013-11-10 16:48:00,45.4,35.1,29.86,WSW,242,4.0,13.0,67,0.00,,,0.05,Wunderground v.1.15,2013-11-10 21:48:00,
2013-11-10 16:49:00,45.4,35.1,29.86,West,259,7.0,13.0,67,0.00,,,0.05,Wunderground v.1.15,2013-11-10 21:49:00,
2013-11-10 16:51:00,45.4,35.1,29.86,WSW,255,5.0,8.0,67,0.00,,,0.05,Wunderground v.1.15,2013-11-10 21:51:00,
2013-11-10 16:52:00,45.3,35.0,29.86,WNW,292,4.0,9.0,67,0.00,,,0.05,Wunderground v.1.15,2013-11-10 21:52:00,
2013-11-10 16:53:00,45.3,35.0,29.86,West,275,7.0,9.0,67,0.00,,,0.05,Wunderground v.1.15,2013-11-10 21:53:00,
2013-11-10 16:55:00,45.2,34.9,29.86,WNW,292,4.0,12.0,67,0.00,,,0.05,Wunderground v.1.15,2013-11-10 21:55:00,
2013-11-10 16:56:00,45.2,34.9,29.86,West,265,2.0,12.0,67,0.00,,,0.05,Wunderground v.1.15,2013-11-10 21:56:00,
2013-11-10 16:57:00,45.2,34.9,29.86,WSW,239,4.0,12.0,67,0.00,,,0.05,Wunderground v.1.15,2013-11-10 21:57:00,
2013-11-10 16:58:00,45.1,34.8,29.87,WNW,283,3.0,12.0,67,0.00,,,0.05,Wunderground v.1.15,2013-11-10 21:58:00,
2013-11-10 17:00:00,45.1,34.8,29.86,WSW,241,10.0,14.0,67,0.00,,,0.05,Wunderground v.1.15,2013-11-10 22:00:00,
2013-11-10 17:01:00,45.1,34.8,29.87,West,259,11.0,12.0,67,0.00,,,0.05,Wunderground v.1.15,2013-11-10 22:01:00,
2013-11-10 17:02:00,45.1,34.8,29.86,West,281,2.0,12.0,67,0.00,,,0.05,Wunderground v.1.15,2013-11-10 22:02:00,
2013-11-10 17:03:00,45.1,34.8,29.86,West,269,4.0,12.0,67,0.00,,,0.05,Wunderground v.1.15,2013-11-10 22:03:00,
2013-11-10 17:04:00,45.1,34.8,29.86,NW,319,2.0,12.0,67,0.00,,,0.05,Wunderground v.1.15,2013-11-10 22:04:00,
2013-11-10 17:05:00,45.0,34.7,29.86,West,261,6.0,12.0,67,0.00,,,0.05,Wunderground v.1.15,2013-11-10 22:05:00,
2013-11-10 17:06:00,45.0,34.7,29.86,SW,231,2.0,12.0,67,0.00,,,0.05,Wunderground v.1.15,2013-11-10 22:06:00,
2013-11-10 17:07:00,45.0,34.7,29.86,WSW,253,4.0,12.0,67,0.00,,,0.05,Wunderground v.1.15,2013-11-10 22:07:00,
2013-11-10 17:09:00,44.9,35.0,29.87,NNW,327,6.0,12.0,68,0.00,,,0.05,Wunderground v.1.15,2013-11-10 22:09:00,
2013-11-10 17:10:00,44.9,35.0,29.87,West,269,3.0,6.0,68,0.00,,,0.05,Wunderground v.1.15,2013-11-10 22:10:00,
2013-11-10 17:11:00,44.9,34.6,29.87,WSW,248,2.0,8.0,67,0.00,,,0.05,Wunderground v.1.15,2013-11-10 22:11:00,
2013-11-10 17:13:00,44.9,34.6,29.87,West,265,6.0,8.0,67,0.00,,,0.05,Wunderground v.1.15,2013-11-10 22:13:00,
2013-11-10 17:14:00,44.8,34.9,29.86,WSW,238,8.0,10.0,68,0.00,,,0.05,Wunderground v.1.15,2013-11-10 22:14:00,
2013-11-10 17:15:00,44.8,34.5,29.86,NW,321,4.0,10.0,67,0.00,,,0.05,Wunderground v.1.15,2013-11-10 22:15:00,
2013-11-10 17:17:00,44.8,34.9,29.87,WSW,249,2.0,10.0,68,0.00,,,0.05,Wunderground v.1.15,2013-11-10 22:17:00,
2013-11-10 17:18:00,44.7,34.4,29.87,SW,235,5.0,10.0,67,0.00,,,0.05,Wunderground v.1.15,2013-11-10 22:18:00,
2013-11-10 17:19:00,44.7,34.4,29.87,West,276,3.0,10.0,67,0.00,,,0.05,Wunderground v.1.15,2013-11-10 22:19:00,
2013-11-10 17:20:00,44.7,34.4,29.87,NW,306,3.0,4.0,67,0.00,,,0.05,Wunderground v.1.15,2013-11-10 22:20:00,
2013-11-10 17:22:00,44.7,34.8,29.87,NW,306,3.0,4.0,68,0.00,,,0.05,Wunderground v.1.15,2013-11-10 22:22:00,
2013-11-10 17:23:00,44.6,34.3,29.87,West,267,3.0,6.0,67,0.00,,,0.05,Wunderground v.1.15,2013-11-10 22:23:00,
2013-11-10 17:24:00,44.7,34.4,29.87,South,188,2.0,6.0,67,0.00,,,0.05,Wunderground v.1.15,2013-11-10 22:24:00,
2013-11-10 17:25:00,44.7,34.4,29.87,South,188,1.0,6.0,67,0.00,,,0.05,Wunderground v.1.15,2013-11-10 22:25:00,
2013-11-10 17:27:00,44.6,34.7,29.88,West,280,3.0,7.0,68,0.00,,,0.05,Wunderground v.1.15,2013-11-10 22:27:00,
2013-11-10 17:28:00,44.6,34.7,29.88,WNW,284,2.0,7.0,68,0.00,,,0.05,Wunderground v.1.15,2013-11-10 22:28:00,
2013-11-10 17:29:00,44.5,34.6,29.88,SW,236,5.0,7.0,68,0.00,,,0.05,Wunderground v.1.15,2013-11-10 22:29:00,
2013-11-10 17:30:00,44.5,34.6,29.88,SW,234,1.0,5.0,68,0.00,,,0.05,Wunderground v.1.15,2013-11-10 22:30:00,
2013-11-10 17:31:00,44.6,34.3,29.88,WNW,287,2.0,5.0,67,0.00,,,0.05,Wunderground v.1.15,2013-11-10 22:31:00,
2013-11-10 17:33:00,44.6,34.3,29.88,West,270,3.0,6.0,67,0.00,,,0.05,Wunderground v.1.15,2013-11-10 22:33:00,
2013-11-10 17:34:00,44.6,34.3,29.88,West,279,3.0,6.0,67,0.00,,,0.05,Wunderground v.1.15,2013-11-10 22:34:00,
2013-11-10 17:35:00,44.6,34.3,29.88,West,279,1.0,6.0,67,0.00,,,0.05,Wunderground v.1.15,2013-11-10 22:35:00,
2013-11-10 17:36:00,44.5,34.2,29.88,WNW,299,4.0,6.0,67,0.00,,,0.05,Wunderground v.1.15,2013-11-10 22:36:00,
2013-11-10 17:38:00,44.5,34.6,29.88,WNW,303,1.0,7.0,68,0.00,,,0.05,Wunderground v.1.15,2013-11-10 22:38:00,
2013-11-10 17:39:00,44.5,34.6,29.88,WNW,303,2.0,7.0,68,0.00,,,0.05,Wunderground v.1.15,2013-11-10 22:39:00,
2013-11-10 17:40:00,44.5,34.6,29.88,WNW,283,2.0,4.0,68,0.00,,,0.05,Wunderground v.1.15,2013-11-10 22:40:00,
2013-11-10 17:41:00,44.5,34.6,29.88,WNW,283,2.0,4.0,68,0.00,,,0.05,Wunderground v.1.15,2013-11-10 22:41:00,
2013-11-10 17:42:00,44.4,34.5,29.88,WNW,283,3.0,4.0,68,0.00,,,0.05,Wunderground v.1.15,2013-11-10 22:42:00,
2013-11-10 17:43:00,44.4,34.5,29.88,WNW,283,1.0,4.0,68,0.00,,,0.05,Wunderground v.1.15,2013-11-10 22:43:00,
2013-11-10 17:44:00,44.4,34.5,29.88,WNW,283,3.0,4.0,68,0.00,,,0.05,Wunderground v.1.15,2013-11-10 22:44:00,
2013-11-10 17:46:00,44.3,34.4,29.88,West,267,6.0,6.0,68,0.00,,,0.05,Wunderground v.1.15,2013-11-10 22:46:00,
2013-11-10 17:47:00,44.3,34.4,29.88,WSW,256,4.0,7.0,68,0.00,,,0.05,Wunderground v.1.15,2013-11-10 22:47:00,
2013-11-10 17:48:00,44.3,34.4,29.88,WSW,252,4.0,7.0,68,0.00,,,0.05,Wunderground v.1.15,2013-11-10 22:48:00,
2013-11-10 17:49:00,44.3,34.4,29.88,WSW,252,1.0,7.0,68,0.00,,,0.05,Wunderground v.1.15,2013-11-10 22:49:00,
2013-11-10 17:50:00,44.3,34.4,29.88,WSW,252,2.0,4.0,68,0.00,,,0.05,Wunderground v.1.15,2013-11-10 22:50:00,
2013-11-10 17:51:00,44.3,34.4,29.88,NW,325,1.0,4.0,68,0.00,,,0.05,Wunderground v.1.15,2013-11-10 22:51:00,
2013-11-10 17:52:00,44.2,34.3,29.88,NW,318,1.0,4.0,68,0.00,,,0.05,Wunderground v.1.15,2013-11-10 22:52:00,
2013-11-10 17:54:00,44.1,34.2,29.88,NW,318,1.0,4.0,68,0.00,,,0.05,Wunderground v.1.15,2013-11-10 22:54:00,
2013-11-10 17:55:00,44.0,34.1,29.88,NW,317,1.0,4.0,68,0.00,,,0.05,Wunderground v.1.15,2013-11-10 22:55:00,
2013-11-10 17:56:00,44.0,34.1,29.88,NW,317,1.0,4.0,68,0.00,,,0.05,Wunderground v.1.15,2013-11-10 22:56:00,
2013-11-10 17:57:00,43.9,34.4,29.88,WNW,290,2.0,4.0,69,0.00,,,0.05,Wunderground v.1.15,2013-11-10 22:57:00,
2013-11-10 17:59:00,43.8,34.3,29.88,West,259,6.0,7.0,69,0.00,,,0.05,Wunderground v.1.15,2013-11-10 22:59:00,
2013-11-10 18:01:00,43.6,34.1,29.88,West,261,4.0,6.0,69,0.00,,,0.05,Wunderground v.1.15,2013-11-10 23:01:00,
2013-11-10 18:02:00,43.6,34.1,29.88,West,261,4.0,6.0,69,0.00,,,0.05,Wunderground v.1.15,2013-11-10 23:02:00,
2013-11-10 18:03:00,43.6,34.1,29.88,WSW,237,4.0,6.0,69,0.00,,,0.05,Wunderground v.1.15,2013-11-10 23:03:00,
2013-11-10 18:04:00,43.6,34.1,29.88,WSW,240,3.0,6.0,69,0.00,,,0.05,Wunderground v.1.15,2013-11-10 23:04:00,
2013-11-10 18:06:00,43.5,34.0,29.88,WSW,246,2.0,6.0,69,0.00,,,0.05,Wunderground v.1.15,2013-11-10 23:06:00,
2013-11-10 18:07:00,43.5,34.0,29.88,WSW,246,2.0,6.0,69,0.00,,,0.05,Wunderground v.1.15,2013-11-10 23:07:00,
2013-11-10 18:08:00,43.5,34.0,29.88,West,269,3.0,6.0,69,0.00,,,0.05,Wunderground v.1.15,2013-11-10 23:08:00,
2013-11-10 18:10:00,43.5,34.4,29.89,West,268,4.0,6.0,70,0.00,,,0.05,Wunderground v.1.15,2013-11-10 23:10:00,
2013-11-10 18:11:00,43.6,34.1,29.89,West,261,3.0,7.0,69,0.00,,,0.05,Wunderground v.1.15,2013-11-10 23:11:00,
2013-11-10 18:12:00,43.5,34.0,29.89,West,263,3.0,7.0,69,0.00,,,0.05,Wunderground v.1.15,2013-11-10 23:12:00,
2013-11-10 18:13:00,43.6,34.1,29.89,SSW,200,0.0,7.0,69,0.00,,,0.05,Wunderground v.1.15,2013-11-10 23:13:00,
2013-11-10 18:15:00,43.6,34.1,29.89,SW,231,4.0,7.0,69,0.00,,,0.05,Wunderground v.1.15,2013-11-10 23:15:00,
2013-11-10 18:17:00,43.6,34.1,29.89,WSW,247,5.0,7.0,69,0.00,,,0.05,Wunderground v.1.15,2013-11-10 23:17:00,
2013-11-10 18:19:00,43.5,34.0,29.89,West,267,6.0,7.0,69,0.00,,,0.05,Wunderground v.1.15,2013-11-10 23:19:00,
2013-11-10 18:20:00,43.5,34.0,29.89,SW,214,5.0,5.0,69,0.00,,,0.05,Wunderground v.1.15,2013-11-10 23:20:00,
2013-11-10 18:21:00,43.6,34.1,29.89,WSW,249,4.0,5.0,69,0.00,,,0.05,Wunderground v.1.15,2013-11-10 23:21:00,
2013-11-10 18:22:00,43.6,34.1,29.89,SW,224,5.0,6.0,69,0.00,,,0.05,Wunderground v.1.15,2013-11-10 23:22:00,
2013-11-10 18:24:00,43.5,34.0,29.89,West,267,6.0,7.0,69,0.00,,,0.05,Wunderground v.1.15,2013-11-10 23:24:00,
2013-11-10 18:26:00,43.6,34.1,29.89,NNW,342,2.0,7.0,69,0.00,,,0.05,Wunderground v.1.15,2013-11-10 23:26:00,
2013-11-10 18:27:00,43.6,34.1,29.89,WSW,257,4.0,8.0,69,0.00,,,0.05,Wunderground v.1.15,2013-11-10 23:27:00,
2013-11-10 18:28:00,43.6,34.1,29.89,NNW,342,4.0,8.0,69,0.00,,,0.05,Wunderground v.1.15,2013-11-10 23:28:00,
2013-11-10 18:30:00,43.5,34.4,29.89,SSW,207,4.0,4.0,70,0.00,,,0.05,Wunderground v.1.15,2013-11-10 23:30:00,
2013-11-10 18:31:00,43.5,34.4,29.89,SSW,202,0.0,4.0,70,0.00,,,0.05,Wunderground v.1.15,2013-11-10 23:31:00,
2013-11-10 18:32:00,43.4,34.3,29.89,SSW,202,2.0,4.0,70,0.00,,,0.05,Wunderground v.1.15,2013-11-10 23:32:00,
2013-11-10 18:33:00,43.4,34.3,29.89,SW,229,4.0,4.0,70,0.00,,,0.05,Wunderground v.1.15,2013-11-10 23:33:00,
2013-11-10 18:35:00,43.3,34.2,29.89,West,268,1.0,6.0,70,0.00,,,0.05,Wunderground v.1.15,2013-11-10 23:35:00,
2013-11-10 18:36:00,43.3,34.2,29.89,WNW,290,1.0,6.0,70,0.00,,,0.05,Wunderground v.1.15,2013-11-10 23:36:00,
2013-11-10 18:37:00,43.2,34.1,29.89,SW,236,1.0,6.0,70,0.00,,,0.05,Wunderground v.1.15,2013-11-10 23:37:00,
2013-11-10 18:38:00,43.2,34.1,29.89,SW,223,1.0,6.0,70,0.00,,,0.05,Wunderground v.1.15,2013-11-10 23:38:00,
2013-11-10 18:41:00,43.2,34.1,29.89,WSW,246,4.0,8.0,70,0.00,,,0.05,Wunderground v.1.15,2013-11-10 23:41:00,
2013-11-10 18:43:00,43.2,34.1,29.89,WSW,252,1.0,8.0,70,0.00,,,0.05,Wunderground v.1.15,2013-11-10 23:43:00,
2013-11-10 18:46:00,43.2,34.1,29.89,WSW,244,1.0,8.0,70,0.00,,,0.05,Wunderground v.1.15,2013-11-10 23:46:00,
2013-11-10 18:48:00,43.1,34.0,29.89,WSW,244,1.0,8.0,70,0.00,,,0.05,Wunderground v.1.15,2013-11-10 23:48:00,
2013-11-10 18:49:00,43.1,34.0,29.89,WSW,244,2.0,8.0,70,0.00,,,0.05,Wunderground v.1.15,2013-11-10 23:49:00,
2013-11-10 18:52:00,43.0,33.9,29.89,WSW,252,3.0,5.0,70,0.00,,,0.05,Wunderground v.1.15,2013-11-10 23:52:00,
2013-11-10 18:53:00,43.0,33.9,29.89,SW,224,3.0,5.0,70,0.00,,,0.05,Wunderground v.1.15,2013-11-10 23:53:00,
2013-11-10 18:54:00,43.0,34.2,29.89,SW,222,2.0,5.0,71,0.00,,,0.05,Wunderground v.1.15,2013-11-10 23:54:00,
2013-11-10 18:57:00,43.0,34.2,29.89,West,273,0.0,6.0,71,0.00,,,0.05,Wunderground v.1.15,2013-11-10 23:57:00,
2013-11-10 18:58:00,43.0,34.2,29.89,West,273,0.0,6.0,71,0.00,,,0.05,Wunderground v.1.15,2013-11-10 23:58:00,
2013-11-10 18:59:00,43.0,34.2,29.89,WSW,244,4.0,6.0,71,0.00,,,0.05,Wunderground v.1.15,2013-11-10 23:59:00,
2013-11-10 19:02:00,43.0,33.9,29.90,WSW,243,8.0,8.0,70,0.00,,,0.05,Wunderground v.1.15,2013-11-11 00:02:00,
2013-11-10 19:03:00,43.1,34.0,29.89,SSW,200,3.0,8.0,70,0.00,,,0.05,Wunderground v.1.15,2013-11-11 00:03:00,
2013-11-10 19:04:00,43.1,34.0,29.89,SSW,202,1.0,8.0,70,0.00,,,0.05,Wunderground v.1.15,2013-11-11 00:04:00,
2013-11-10 19:07:00,42.9,33.8,29.89,WSW,251,4.0,8.0,70,0.00,,,0.05,Wunderground v.1.15,2013-11-11 00:07:00,
2013-11-10 19:09:00,43.1,34.0,29.89,West,269,3.0,14.0,70,0.00,,,0.05,Wunderground v.1.15,2013-11-11 00:09:00,
2013-11-10 19:10:00,43.1,34.0,29.89,West,276,1.0,7.0,70,0.00,,,0.05,Wunderground v.1.15,2013-11-11 00:10:00,
2013-11-10 19:12:00,43.1,34.0,29.89,NW,316,2.0,7.0,70,0.00,,,0.05,Wunderground v.1.15,2013-11-11 00:12:00,
2013-11-10 19:14:00,43.0,33.9,29.89,West,262,2.0,9.0,70,0.00,,,0.05,Wunderground v.1.15,2013-11-11 00:14:00,
2013-11-10 19:15:00,43.0,33.9,29.89,WSW,248,10.0,10.0,70,0.00,,,0.05,Wunderground v.1.15,2013-11-11 00:15:00,
2013-11-10 19:17:00,43.0,33.9,29.89,WNW,298,5.0,10.0,70,0.00,,,0.05,Wunderground v.1.15,2013-11-11 00:17:00,
2013-11-10 19:19:00,43.1,34.0,29.89,WSW,257,4.0,10.0,70,0.00,,,0.05,Wunderground v.1.15,2013-11-11 00:19:00,
2013-11-10 19:20:00,43.1,34.0,29.89,WSW,240,6.0,9.0,70,0.00,,,0.05,Wunderground v.1.15,2013-11-11 00:20:00,
2013-11-10 19:21:00,43.1,34.0,29.89,West,262,3.0,9.0,70,0.00,,,0.05,Wunderground v.1.15,2013-11-11 00:21:00,
2013-11-10 19:22:00,43.2,33.7,29.89,WSW,248,4.0,9.0,69,0.00,,,0.05,Wunderground v.1.15,2013-11-11 00:22:00,
2013-11-10 19:24:00,43.2,33.7,29.89,WSW,252,5.0,9.0,69,0.00,,,0.05,Wunderground v.1.15,2013-11-11 00:24:00,
2013-11-10 19:25:00,43.2,33.7,29.89,WSW,252,0.0,9.0,69,0.00,,,0.05,Wunderground v.1.15,2013-11-11 00:25:00,
2013-11-10 19:26:00,43.1,33.6,29.90,West,267,6.0,13.0,69,0.00,,,0.05,Wunderground v.1.15,2013-11-11 00:26:00,
2013-11-10 19:28:00,43.3,33.4,29.90,WSW,254,5.0,13.0,68,0.00,,,0.05,Wunderground v.1.15,2013-11-11 00:28:00,
2013-11-10 19:30:00,43.3,33.4,29.90,WNW,293,5.0,5.0,68,0.00,,,0.05,Wunderground v.1.15,2013-11-11 00:30:00,
2013-11-10 19:31:00,43.3,33.4,29.90,West,262,2.0,6.0,68,0.00,,,0.05,Wunderground v.1.15,2013-11-11 00:31:00,
2013-11-10 19:33:00,43.3,33.4,29.90,West,268,3.0,6.0,68,0.00,,,0.05,Wunderground v.1.15,2013-11-11 00:33:00,
2013-11-10 19:35:00,43.3,33.4,29.90,West,276,7.0,11.0,68,0.00,,,0.05,Wunderground v.1.15,2013-11-11 00:35:00,
2013-11-10 19:36:00,43.4,33.5,29.90,West,268,7.0,12.0,68,0.00,,,0.05,Wunderground v.1.15,2013-11-11 00:36:00,
2013-11-10 19:38:00,43.4,33.2,29.90,West,261,3.0,12.0,67,0.00,,,0.05,Wunderground v.1.15,2013-11-11 00:38:00,
2013-11-10 19:40:00,43.3,33.4,29.90,West,271,3.0,6.0,68,0.00,,,0.05,Wunderground v.1.15,2013-11-11 00:40:00,
2013-11-10 19:41:00,43.3,33.4,29.90,West,271,1.0,6.0,68,0.00,,,0.05,Wunderground v.1.15,2013-11-11 00:41:00,
2013-11-10 19:42:00,43.2,33.3,29.90,West,277,4.0,6.0,68,0.00,,,0.05,Wunderground v.1.15,2013-11-11 00:42:00,
2013-11-10 19:43:00,43.2,33.3,29.90,West,273,4.0,9.0,68,0.00,,,0.05,Wunderground v.1.15,2013-11-11 00:43:00,
2013-11-10 19:45:00,43.2,33.3,29.90,WSW,250,3.0,9.0,68,0.00,,,0.05,Wunderground v.1.15,2013-11-11 00:45:00,
2013-11-10 19:46:00,43.2,33.0,29.90,NW,309,3.0,10.0,67,0.00,,,0.05,Wunderground v.1.15,2013-11-11 00:46:00,
2013-11-10 19:47:00,43.2,33.3,29.90,West,261,3.0,10.0,68,0.00,,,0.05,Wunderground v.1.15,2013-11-11 00:47:00,
2013-11-10 19:48:00,43.2,33.0,29.90,West,272,7.0,11.0,67,0.00,,,0.05,Wunderground v.1.15,2013-11-11 00:48:00,
2013-11-10 19:50:00,43.3,33.1,29.90,NW,317,4.0,10.0,67,0.00,,,0.05,Wunderground v.1.15,2013-11-11 00:50:00,
2013-11-10 19:51:00,43.3,33.1,29.90,West,259,6.0,10.0,67,0.00,,,0.05,Wunderground v.1.15,2013-11-11 00:51:00,
2013-11-10 19:52:00,43.4,33.2,29.90,SW,226,4.0,13.0,67,0.00,,,0.05,Wunderground v.1.15,2013-11-11 00:52:00,
2013-11-10 19:53:00,43.5,32.9,29.90,WSW,242,11.0,13.0,66,0.00,,,0.05,Wunderground v.1.15,2013-11-11 00:53:00,
2013-11-10 19:54:00,43.5,32.9,29.90,WSW,246,11.0,13.0,66,0.00,,,0.05,Wunderground v.1.15,2013-11-11 00:54:00,
2013-11-10 19:56:00,43.7,33.1,29.90,WNW,300,8.0,13.0,66,0.00,,,0.05,Wunderground v.1.15,2013-11-11 00:56:00,
2013-11-10 19:58:00,43.7,33.1,29.90,WSW,257,8.0,13.0,66,0.00,,,0.05,Wunderground v.1.15,2013-11-11 00:58:00,
2013-11-10 19:59:00,43.7,33.1,29.90,WNW,297,7.0,13.0,66,0.00,,,0.05,Wunderground v.1.15,2013-11-11 00:59:00,
2013-11-10 20:01:00,43.7,33.1,29.90,WNW,292,3.0,8.0,66,0.00,,,0.05,Wunderground v.1.15,2013-11-11 01:01:00,
2013-11-10 20:04:00,43.7,33.1,29.90,WSW,251,11.0,13.0,66,0.00,,,0.05,Wunderground v.1.15,2013-11-11 01:04:00,
2013-11-10 20:06:00,43.8,33.2,29.90,WSW,254,1.0,13.0,66,0.00,,,0.05,Wunderground v.1.15,2013-11-11 01:06:00,
2013-11-10 20:07:00,43.7,33.1,29.90,WSW,240,4.0,13.0,66,0.00,,,0.05,Wunderground v.1.15,2013-11-11 01:07:00,
2013-11-10 20:09:00,43.6,33.0,29.90,SW,232,4.0,13.0,66,0.00,,,0.05,Wunderground v.1.15,2013-11-11 01:09:00,
2013-11-10 20:11:00,43.5,32.9,29.90,West,274,2.0,5.0,66,0.00,,,0.05,Wunderground v.1.15,2013-11-11 01:11:00,
2013-11-10 20:12:00,43.4,32.8,29.90,West,274,1.0,5.0,66,0.00,,,0.05,Wunderground v.1.15,2013-11-11 01:12:00,
2013-11-10 20:14:00,43.3,32.7,29.90,West,261,3.0,7.0,66,0.00,,,0.05,Wunderground v.1.15,2013-11-11 01:14:00,
2013-11-10 20:15:00,43.2,32.6,29.90,WSW,255,1.0,7.0,66,0.00,,,0.05,Wunderground v.1.15,2013-11-11 01:15:00,
2013-11-10 20:16:00,43.2,33.0,29.90,WSW,252,4.0,7.0,67,0.00,,,0.05,Wunderground v.1.15,2013-11-11 01:16:00,
2013-11-10 20:17:00,43.2,33.0,29.90,WSW,252,1.0,7.0,67,0.00,,,0.05,Wunderground v.1.15,2013-11-11 01:17:00,
2013-11-10 20:18:00,43.1,32.9,29.90,WSW,252,2.0,7.0,67,0.00,,,0.05,Wunderground v.1.15,2013-11-11 01:18:00,
2013-11-10 20:19:00,43.0,32.8,29.90,WSW,248,2.0,7.0,67,0.00,,,0.05,Wunderground v.1.15,2013-11-11 01:19:00,
2013-11-10 20:20:00,43.0,32.8,29.91,WSW,248,1.0,2.0,67,0.00,,,0.05,Wunderground v.1.15,2013-11-11 01:20:00,
2013-11-10 20:21:00,42.9,32.7,29.91,WSW,248,1.0,2.0,67,0.00,,,0.05,Wunderground v.1.15,2013-11-11 01:21:00,
2013-11-10 20:22:00,42.9,32.7,29.91,WSW,248,2.0,3.0,67,0.00,,,0.05,Wunderground v.1.15,2013-11-11 01:22:00,
2013-11-10 20:23:00,42.9,32.7,29.90,WSW,248,2.0,3.0,67,0.00,,,0.05,Wunderground v.1.15,2013-11-11 01:23:00,
2013-11-10 20:24:00,42.8,32.6,29.90,WSW,248,1.0,4.0,67,0.00,,,0.05,Wunderground v.1.15,2013-11-11 01:24:00,
2013-11-10 20:25:00,42.8,32.6,29.90,WSW,248,1.0,4.0,67,0.00,,,0.05,Wunderground v.1.15,2013-11-11 01:25:00,
2013-11-10 20:26:00,42.8,32.6,29.90,WSW,248,2.0,4.0,67,0.00,,,0.05,Wunderground v.1.15,2013-11-11 01:26:00,
2013-11-10 20:27:00,42.7,32.5,29.90,WSW,248,0.0,4.0,67,0.00,,,0.05,Wunderground v.1.15,2013-11-11 01:27:00,
2013-11-10 20:28:00,42.7,32.9,29.90,WSW,248,0.0,4.0,68,0.00,,,0.05,Wunderground v.1.15,2013-11-11 01:28:00,
2013-11-10 20:29:00,42.7,32.9,29.90,WSW,248,3.0,4.0,68,0.00,,,0.05,Wunderground v.1.15,2013-11-11 01:29:00,
2013-11-10 20:31:00,42.6,32.8,29.90,SSW,205,4.0,6.0,68,0.00,,,0.05,Wunderground v.1.15,2013-11-11 01:31:00,
2013-11-10 20:32:00,42.6,32.8,29.90,SW,219,3.0,6.0,68,0.00,,,0.05,Wunderground v.1.15,2013-11-11 01:32:00,
2013-11-10 20:33:00,42.5,33.0,29.90,West,261,4.0,8.0,69,0.00,,,0.05,Wunderground v.1.15,2013-11-11 01:33:00,
2013-11-10 20:34:00,42.5,33.0,29.90,WSW,245,3.0,8.0,69,0.00,,,0.05,Wunderground v.1.15,2013-11-11 01:34:00,
2013-11-10 20:37:00,42.2,32.8,29.90,WSW,257,5.0,8.0,69,0.00,,,0.05,Wunderground v.1.15,2013-11-11 01:37:00,
2013-11-10 20:38:00,42.2,33.1,29.90,WSW,249,3.0,8.0,70,0.00,,,0.05,Wunderground v.1.15,2013-11-11 01:38:00,
2013-11-10 20:39:00,42.2,32.8,29.90,WNW,285,4.0,8.0,69,0.00,,,0.05,Wunderground v.1.15,2013-11-11 01:39:00,
2013-11-10 20:42:00,42.2,33.1,29.90,NNE,28,5.0,9.0,70,0.00,,,0.05,Wunderground v.1.15,2013-11-11 01:42:00,
2013-11-10 20:44:00,42.2,33.1,29.90,West,267,8.0,12.0,70,0.00,,,0.05,Wunderground v.1.15,2013-11-11 01:44:00,
2013-11-10 20:47:00,42.4,33.3,29.90,NW,311,6.0,12.0,70,0.00,,,0.05,Wunderground v.1.15,2013-11-11 01:47:00,
2013-11-10 20:49:00,42.4,32.9,29.91,West,275,3.0,12.0,69,0.00,,,0.05,Wunderground v.1.15,2013-11-11 01:49:00,
2013-11-10 20:52:00,42.5,33.0,29.91,WSW,250,3.0,9.0,69,0.00,,,0.05,Wunderground v.1.15,2013-11-11 01:52:00,
2013-11-10 20:53:00,42.5,33.0,29.91,WSW,249,4.0,9.0,69,0.00,,,0.05,Wunderground v.1.15,2013-11-11 01:53:00,
2013-11-10 20:54:00,42.6,33.1,29.91,West,267,2.0,9.0,69,0.00,,,0.05,Wunderground v.1.15,2013-11-11 01:54:00,
2013-11-10 20:55:00,42.6,33.1,29.91,West,262,3.0,9.0,69,0.00,,,0.05,Wunderground v.1.15,2013-11-11 01:55:00,
2013-11-10 20:57:00,42.6,33.1,29.91,WSW,250,3.0,12.0,69,0.00,,,0.05,Wunderground v.1.15,2013-11-11 01:57:00,
2013-11-10 20:58:00,42.6,33.1,29.91,WNW,302,4.0,12.0,69,0.00,,,0.05,Wunderground v.1.15,2013-11-11 01:58:00,
2013-11-10 20:59:00,42.6,33.1,29.91,WSW,252,2.0,12.0,69,0.00,,,0.05,Wunderground v.1.15,2013-11-11 01:59:00,
2013-11-10 21:00:00,42.6,33.1,29.91,WSW,252,2.0,4.0,69,0.00,,,0.05,Wunderground v.1.15,2013-11-11 02:00:00,
2013-11-10 21:02:00,42.5,33.0,29.91,SW,236,5.0,8.0,69,0.00,,,0.05,Wunderground v.1.15,2013-11-11 02:02:00,
2013-11-10 21:03:00,42.5,33.0,29.91,WNW,298,7.0,8.0,69,0.00,,,0.05,Wunderground v.1.15,2013-11-11 02:03:00,
2013-11-10 21:05:00,42.5,33.0,29.91,West,267,6.0,10.0,69,0.00,,,0.05,Wunderground v.1.15,2013-11-11 02:05:00,
2013-11-10 21:07:00,42.6,33.1,29.91,WSW,251,9.0,10.0,69,0.00,,,0.05,Wunderground v.1.15,2013-11-11 02:07:00,
2013-11-10 21:08:00,42.7,32.9,29.91,West,265,3.0,10.0,68,0.00,,,0.05,Wunderground v.1.15,2013-11-11 02:08:00,
2013-11-10 21:09:00,42.9,33.1,29.91,SW,226,6.0,10.0,68,0.00,,,0.05,Wunderground v.1.15,2013-11-11 02:09:00,
2013-11-10 21:10:00,42.9,33.1,29.91,SW,234,3.0,6.0,68,0.00,,,0.05,Wunderground v.1.15,2013-11-11 02:10:00,
2013-11-10 21:12:00,42.8,33.0,29.91,WSW,238,1.0,7.0,68,0.00,,,0.05,Wunderground v.1.15,2013-11-11 02:12:00,
2013-11-10 21:13:00,42.8,33.0,29.91,WSW,248,5.0,8.0,68,0.00,,,0.05,Wunderground v.1.15,2013-11-11 02:13:00,
2013-11-10 21:14:00,42.8,33.0,29.91,SW,228,5.0,10.0,68,0.00,,,0.05,Wunderground v.1.15,2013-11-11 02:14:00,
2013-11-10 21:15:00,42.8,33.0,29.91,WSW,240,2.0,10.0,68,0.00,,,0.05,Wunderground v.1.15,2013-11-11 02:15:00,
2013-11-10 21:17:00,42.7,32.9,29.92,North,355,6.0,10.0,68,0.00,,,0.05,Wunderground v.1.15,2013-11-11 02:17:00,
2013-11-10 21:18:00,42.7,32.9,29.92,WSW,257,1.0,10.0,68,0.00,,,0.05,Wunderground v.1.15,2013-11-11 02:18:00,
2013-11-10 21:19:00,42.6,32.8,29.92,WNW,288,2.0,10.0,68,0.00,,,0.05,Wunderground v.1.15,2013-11-11 02:19:00,
2013-11-10 21:20:00,42.6,32.8,29.92,WSW,241,9.0,10.0,68,0.00,,,0.05,Wunderground v.1.15,2013-11-11 02:20:00,
2013-11-10 21:22:00,42.8,33.0,29.92,WSW,243,10.0,11.0,68,0.00,,,0.05,Wunderground v.1.15,2013-11-11 02:22:00,
2013-11-10 21:23:00,42.9,32.7,29.92,WNW,294,3.0,11.0,67,0.00,,,0.05,Wunderground v.1.15,2013-11-11 02:23:00,
2013-11-10 21:24:00,42.9,33.1,29.92,WSW,243,3.0,11.0,68,0.00,,,0.05,Wunderground v.1.15,2013-11-11 02:24:00,
2013-11-10 21:25:00,42.9,32.7,29.91,SSW,212,8.0,12.0,67,0.00,,,0.05,Wunderground v.1.15,2013-11-11 02:25:00,
2013-11-10 21:26:00,42.9,32.7,29.92,SW,232,3.0,12.0,67,0.00,,,0.05,Wunderground v.1.15,2013-11-11 02:26:00,
2013-11-10 21:28:00,43.1,32.9,29.91,West,261,10.0,22.0,67,0.00,,,0.05,Wunderground v.1.15,2013-11-11 02:28:00,
2013-11-10 21:29:00,43.2,33.0,29.92,SW,228,7.0,22.0,67,0.00,,,0.05,Wunderground v.1.15,2013-11-11 02:29:00,
2013-11-10 21:30:00,43.2,32.6,29.92,West,264,3.0,6.0,66,0.00,,,0.05,Wunderground v.1.15,2013-11-11 02:30:00,
2013-11-10 21:31:00,43.2,32.6,29.92,WSW,240,3.0,7.0,66,0.00,,,0.05,Wunderground v.1.15,2013-11-11 02:31:00,
2013-11-10 21:34:00,43.1,32.5,29.92,WSW,257,4.0,9.0,66,0.00,,,0.05,Wunderground v.1.15,2013-11-11 02:34:00,
2013-11-10 21:36:00,43.1,32.5,29.91,SW,231,0.0,9.0,66,0.00,,,0.05,Wunderground v.1.15,2013-11-11 02:36:00,
2013-11-10 21:39:00,43.1,32.5,29.91,WSW,254,4.0,10.0,66,0.00,,,0.05,Wunderground v.1.15,2013-11-11 02:39:00,
2013-11-10 21:41:00,43.0,32.4,29.91,WSW,258,8.0,8.0,66,0.00,,,0.05,Wunderground v.1.15,2013-11-11 02:41:00,
2013-11-10 21:42:00,43.0,32.4,29.91,West,262,4.0,8.0,66,0.00,,,0.05,Wunderground v.1.15,2013-11-11 02:42:00,
2013-11-10 21:44:00,42.9,32.3,29.91,West,268,1.0,8.0,66,0.00,,,0.05,Wunderground v.1.15,2013-11-11 02:44:00,
2013-11-10 21:45:00,42.9,32.7,29.92,West,259,7.0,9.0,67,0.00,,,0.05,Wunderground v.1.15,2013-11-11 02:45:00,
2013-11-10 21:46:00,42.8,32.2,29.91,WSW,248,9.0,9.0,66,0.00,,,0.05,Wunderground v.1.15,2013-11-11 02:46:00,
2013-11-10 21:47:00,42.8,32.6,29.91,West,262,4.0,9.0,67,0.00,,,0.05,Wunderground v.1.15,2013-11-11 02:47:00,
2013-11-10 21:48:00,42.8,32.6,29.92,WSW,242,5.0,11.0,67,0.00,,,0.05,Wunderground v.1.15,2013-11-11 02:48:00,
2013-11-10 21:49:00,42.8,32.6,29.91,South,185,3.0,11.0,67,0.00,,,0.05,Wunderground v.1.15,2013-11-11 02:49:00,
2013-11-10 21:50:00,42.7,32.5,29.92,WSW,239,9.0,10.0,67,0.00,,,0.05,Wunderground v.1.15,2013-11-11 02:50:00,
2013-11-10 21:52:00,42.8,32.2,29.92,West,265,4.0,12.0,66,0.00,,,0.05,Wunderground v.1.15,2013-11-11 02:52:00,
2013-11-10 21:54:00,42.8,32.6,29.92,WSW,239,10.0,12.0,67,0.00,,,0.05,Wunderground v.1.15,2013-11-11 02:54:00,
2013-11-10 21:55:00,42.9,32.3,29.91,West,279,6.0,12.0,66,0.00,,,0.05,Wunderground v.1.15,2013-11-11 02:55:00,
2013-11-10 21:57:00,43.0,32.4,29.92,NNW,329,4.0,12.0,66,0.00,,,0.05,Wunderground v.1.15,2013-11-11 02:57:00,
2013-11-10 21:59:00,43.1,32.5,29.92,WSW,256,11.0,16.0,66,0.00,,,0.05,Wunderground v.1.15,2013-11-11 02:59:00,
2013-11-10 22:01:00,43.1,32.1,29.91,SW,234,4.0,10.0,65,0.00,,,0.05,Wunderground v.1.15,2013-11-11 03:01:00,
2013-11-10 22:02:00,43.1,32.5,29.91,NW,316,4.0,10.0,66,0.00,,,0.05,Wunderground v.1.15,2013-11-11 03:02:00,
2013-11-10 22:03:00,43.1,32.5,29.91,WNW,292,2.0,10.0,66,0.00,,,0.05,Wunderground v.1.15,2013-11-11 03:03:00,
2013-11-10 22:04:00,43.0,32.4,29.91,SW,233,6.0,13.0,66,0.00,,,0.05,Wunderground v.1.15,2013-11-11 03:04:00,
2013-11-10 22:06:00,43.1,32.1,29.91,NW,311,4.0,13.0,65,0.00,,,0.05,Wunderground v.1.15,2013-11-11 03:06:00,
2013-11-10 22:08:00,43.1,32.1,29.91,West,274,2.0,13.0,65,0.00,,,0.05,Wunderground v.1.15,2013-11-11 03:08:00,
2013-11-10 22:09:00,43.1,32.1,29.92,SW,227,8.0,13.0,65,0.00,,,0.05,Wunderground v.1.15,2013-11-11 03:09:00,
2013-11-10 22:10:00,43.1,32.1,29.92,WSW,250,10.0,11.0,65,0.00,,,0.05,Wunderground v.1.15,2013-11-11 03:10:00,
2013-11-10 22:11:00,43.2,32.2,29.92,West,260,6.0,12.0,65,0.00,,,0.05,Wunderground v.1.15,2013-11-11 03:11:00,
2013-11-10 22:13:00,43.2,32.2,29.92,West,271,3.0,12.0,65,0.00,,,0.05,Wunderground v.1.15,2013-11-11 03:13:00,
2013-11-10 22:14:00,43.1,32.1,29.92,WSW,254,3.0,12.0,65,0.00,,,0.05,Wunderground v.1.15,2013-11-11 03:14:00,
2013-11-10 22:15:00,43.1,32.1,29.92,NW,307,5.0,13.0,65,0.00,,,0.05,Wunderground v.1.15,2013-11-11 03:15:00,
2013-11-10 22:16:00,43.2,32.2,29.92,WSW,246,7.0,13.0,65,0.00,,,0.05,Wunderground v.1.15,2013-11-11 03:16:00,
2013-11-10 22:18:00,43.1,32.1,29.92,WSW,257,8.0,13.0,65,0.00,,,0.05,Wunderground v.1.15,2013-11-11 03:18:00,
2013-11-10 22:19:00,43.1,32.1,29.92,West,267,6.0,15.0,65,0.00,,,0.05,Wunderground v.1.15,2013-11-11 03:19:00,
2013-11-10 22:20:00,43.1,32.1,29.92,North,360,11.0,11.0,65,0.00,,,0.05,Wunderground v.1.15,2013-11-11 03:20:00,
2013-11-10 22:21:00,43.1,32.1,29.92,WNW,300,8.0,11.0,65,0.00,,,0.05,Wunderground v.1.15,2013-11-11 03:21:00,
2013-11-10 22:23:00,43.1,32.1,29.92,WSW,254,5.0,14.0,65,0.00,,,0.05,Wunderground v.1.15,2013-11-11 03:23:00,
2013-11-10 22:25:00,43.2,32.2,29.92,North,360,2.0,14.0,65,0.00,,,0.05,Wunderground v.1.15,2013-11-11 03:25:00,
2013-11-10 22:26:00,43.3,32.3,29.92,West,268,4.0,15.0,65,0.00,,,0.05,Wunderground v.1.15,2013-11-11 03:26:00,
2013-11-10 22:28:00,43.3,32.3,29.92,WSW,242,2.0,15.0,65,0.00,,,0.05,Wunderground v.1.15,2013-11-11 03:28:00,
2013-11-10 22:30:00,43.2,32.2,29.92,WNW,303,4.0,7.0,65,0.00,,,0.05,Wunderground v.1.15,2013-11-11 03:30:00,
2013-11-10 22:31:00,43.2,32.2,29.92,West,270,4.0,10.0,65,0.00,,,0.05,Wunderground v.1.15,2013-11-11 03:31:00,
2013-11-10 22:33:00,43.1,32.5,29.92,North,9,9.0,12.0,66,0.00,,,0.05,Wunderground v.1.15,2013-11-11 03:33:00,
2013-11-10 22:35:00,43.1,32.5,29.92,NW,326,5.0,12.0,66,0.00,,,0.05,Wunderground v.1.15,2013-11-11 03:35:00,
2013-11-10 22:36:00,43.1,32.5,29.92,WSW,255,10.0,16.0,66,0.00,,,0.05,Wunderground v.1.15,2013-11-11 03:36:00,
2013-11-10 22:39:00,43.2,32.6,29.92,WSW,249,9.0,17.0,66,0.00,,,0.05,Wunderground v.1.15,2013-11-11 03:39:00,
2013-11-10 22:40:00,43.1,32.5,29.92,WSW,251,8.0,8.0,66,0.00,,,0.05,Wunderground v.1.15,2013-11-11 03:40:00,
2013-11-10 22:41:00,43.1,32.5,29.92,NW,322,2.0,8.0,66,0.00,,,0.05,Wunderground v.1.15,2013-11-11 03:41:00,
2013-11-10 22:42:00,43.1,32.5,29.92,West,265,8.0,12.0,66,0.00,,,0.05,Wunderground v.1.15,2013-11-11 03:42:00,
2013-11-10 22:44:00,43.0,32.4,29.92,WSW,243,11.0,12.0,66,0.00,,,0.05,Wunderground v.1.15,2013-11-11 03:44:00,
2013-11-10 22:46:00,42.9,32.3,29.92,West,266,3.0,12.0,66,0.00,,,0.05,Wunderground v.1.15,2013-11-11 03:46:00,
2013-11-10 22:47:00,42.8,32.2,29.92,WSW,248,4.0,12.0,66,0.00,,,0.05,Wunderground v.1.15,2013-11-11 03:47:00,
2013-11-10 22:49:00,42.9,32.7,29.92,SW,217,12.0,13.0,67,0.00,,,0.05,Wunderground v.1.15,2013-11-11 03:49:00,
2013-11-10 22:51:00,42.8,32.6,29.92,WSW,256,7.0,8.0,67,0.00,,,0.05,Wunderground v.1.15,2013-11-11 03:51:00,
2013-11-10 22:53:00,42.8,32.6,29.92,NW,316,6.0,15.0,67,0.00,,,0.05,Wunderground v.1.15,2013-11-11 03:53:00,
2013-11-10 22:54:00,42.9,32.3,29.92,WSW,240,12.0,15.0,66,0.00,,,0.05,Wunderground v.1.15,2013-11-11 03:54:00,
2013-11-10 22:56:00,43.0,32.4,29.93,WSW,248,7.0,17.0,66,0.00,,,0.05,Wunderground v.1.15,2013-11-11 03:56:00,
2013-11-10 22:58:00,43.0,32.4,29.93,NW,317,2.0,17.0,66,0.00,,,0.05,Wunderground v.1.15,2013-11-11 03:58:00,
2013-11-10 22:59:00,43.0,32.4,29.93,WSW,256,4.0,17.0,66,0.00,,,0.05,Wunderground v.1.15,2013-11-11 03:59:00,
2013-11-10 23:01:00,43.0,32.4,29.93,West,262,3.0,8.0,66,0.00,,,0.05,Wunderground v.1.15,2013-11-11 04:01:00,
2013-11-10 23:03:00,43.1,32.5,29.92,West,261,3.0,18.0,66,0.00,,,0.05,Wunderground v.1.15,2013-11-11 04:03:00,
2013-11-10 23:04:00,43.1,32.5,29.93,West,263,4.0,18.0,66,0.00,,,0.05,Wunderground v.1.15,2013-11-11 04:04:00,
2013-11-10 23:06:00,43.0,32.4,29.93,West,263,6.0,18.0,66,0.00,,,0.05,Wunderground v.1.15,2013-11-11 04:06:00,
2013-11-10 23:08:00,43.0,32.4,29.93,SSW,213,6.0,19.0,66,0.00,,,0.05,Wunderground v.1.15,2013-11-11 04:08:00,
2013-11-10 23:09:00,43.0,32.4,29.93,West,264,9.0,22.0,66,0.00,,,0.05,Wunderground v.1.15,2013-11-11 04:09:00,
2013-11-10 23:11:00,43.0,32.4,29.92,NW,312,11.0,23.0,66,0.00,,,0.05,Wunderground v.1.15,2013-11-11 04:11:00,
2013-11-10 23:12:00,43.0,32.4,29.93,NW,313,5.0,23.0,66,0.00,,,0.05,Wunderground v.1.15,2013-11-11 04:12:00,
2013-11-10 23:13:00,42.9,32.3,29.92,SSW,202,10.0,23.0,66,0.00,,,0.05,Wunderground v.1.15,2013-11-11 04:13:00,
2013-11-10 23:14:00,42.9,32.3,29.92,SW,232,14.0,23.0,66,0.00,,,0.05,Wunderground v.1.15,2013-11-11 04:14:00,
2013-11-10 23:16:00,42.8,32.2,29.92,WNW,303,8.0,23.0,66,0.00,,,0.05,Wunderground v.1.15,2013-11-11 04:16:00,
2013-11-10 23:17:00,42.7,32.1,29.92,WSW,240,3.0,23.0,66,0.00,,,0.05,Wunderground v.1.15,2013-11-11 04:17:00,
2013-11-10 23:19:00,42.5,31.9,29.93,WSW,254,21.0,30.0,66,0.00,,,0.05,Wunderground v.1.15,2013-11-11 04:19:00,
2013-11-10 23:21:00,42.5,31.9,29.93,WNW,284,11.0,22.0,66,0.00,,,0.05,Wunderground v.1.15,2013-11-11 04:21:00,
2013-11-10 23:22:00,42.5,31.9,29.93,SSE,168,6.0,23.0,66,0.00,,,0.05,Wunderground v.1.15,2013-11-11 04:22:00,
2013-11-10 23:24:00,42.4,31.8,29.93,SW,236,16.0,23.0,66,0.00,,,0.05,Wunderground v.1.15,2013-11-11 04:24:00,
2013-11-10 23:25:00,42.4,31.8,29.93,NW,320,12.0,25.0,66,0.00,,,0.05,Wunderground v.1.15,2013-11-11 04:25:00,
2013-11-10 23:26:00,42.3,31.7,29.93,West,275,16.0,25.0,66,0.00,,,0.05,Wunderground v.1.15,2013-11-11 04:26:00,
2013-11-10 23:27:00,42.3,31.7,29.93,WSW,242,10.0,29.0,66,0.00,,,0.05,Wunderground v.1.15,2013-11-11 04:27:00,
2013-11-10 23:28:00,42.3,31.7,29.93,WSW,248,7.0,29.0,66,0.00,,,0.05,Wunderground v.1.15,2013-11-11 04:28:00,
2013-11-10 23:29:00,42.3,31.4,29.93,West,275,12.0,29.0,65,0.00,,,0.05,Wunderground v.1.15,2013-11-11 04:29:00,
2013-11-10 23:30:00,42.3,31.4,29.93,West,269,16.0,30.0,65,0.00,,,0.05,Wunderground v.1.15,2013-11-11 04:30:00,
2013-11-10 23:31:00,42.3,31.4,29.94,West,262,8.0,30.0,65,0.00,,,0.05,Wunderground v.1.15,2013-11-11 04:31:00,
2013-11-10 23:32:00,42.3,31.4,29.94,WNW,283,16.0,30.0,65,0.00,,,0.05,Wunderground v.1.15,2013-11-11 04:32:00,
2013-11-10 23:33:00,42.2,31.3,29.93,NW,307,7.0,30.0,65,0.00,,,0.05,Wunderground v.1.15,2013-11-11 04:33:00,
2013-11-10 23:34:00,42.2,31.3,29.93,NW,305,8.0,30.0,65,0.00,,,0.05,Wunderground v.1.15,2013-11-11 04:34:00,
2013-11-10 23:36:00,42.1,31.2,29.93,West,273,6.0,30.0,65,0.00,,,0.05,Wunderground v.1.15,2013-11-11 04:36:00,
2013-11-10 23:37:00,42.1,31.2,29.94,West,270,16.0,30.0,65,0.00,,,0.05,Wunderground v.1.15,2013-11-11 04:37:00,
2013-11-10 23:38:00,42.1,31.2,29.93,West,274,17.0,30.0,65,0.00,,,0.05,Wunderground v.1.15,2013-11-11 04:38:00,
2013-11-10 23:39:00,42.1,31.2,29.94,NNW,348,10.0,30.0,65,0.00,,,0.05,Wunderground v.1.15,2013-11-11 04:39:00,
2013-11-10 23:41:00,42.1,31.2,29.94,NW,311,12.0,12.0,65,0.00,,,0.05,Wunderground v.1.15,2013-11-11 04:41:00,
2013-11-10 23:42:00,42.0,30.7,29.94,WSW,240,9.0,12.0,64,0.00,,,0.05,Wunderground v.1.15,2013-11-11 04:42:00,
2013-11-10 23:43:00,42.0,30.7,29.94,North,5,10.0,15.0,64,0.00,,,0.05,Wunderground v.1.15,2013-11-11 04:43:00,
2013-11-10 23:44:00,42.0,30.7,29.94,SW,232,7.0,18.0,64,0.00,,,0.05,Wunderground v.1.15,2013-11-11 04:44:00,
2013-11-10 23:45:00,42.0,30.7,29.94,West,271,2.0,18.0,64,0.00,,,0.05,Wunderground v.1.15,2013-11-11 04:45:00,
2013-11-10 23:46:00,42.0,30.7,29.95,NNW,348,20.0,20.0,64,0.00,,,0.05,Wunderground v.1.15,2013-11-11 04:46:00,
2013-11-10 23:47:00,42.0,30.7,29.95,WSW,246,10.0,20.0,64,0.00,,,0.05,Wunderground v.1.15,2013-11-11 04:47:00,
2013-11-10 23:48:00,41.9,30.6,29.95,West,281,9.0,20.0,64,0.00,,,0.05,Wunderground v.1.15,2013-11-11 04:48:00,
2013-11-10 23:49:00,41.9,30.6,29.95,NNW,329,8.0,20.0,64,0.00,,,0.05,Wunderground v.1.15,2013-11-11 04:49:00,
2013-11-10 23:50:00,41.9,30.6,29.95,WNW,282,14.0,17.0,64,0.00,,,0.05,Wunderground v.1.15,2013-11-11 04:50:00,
2013-11-10 23:52:00,41.9,30.6,29.95,WSW,257,11.0,20.0,64,0.00,,,0.05,Wunderground v.1.15,2013-11-11 04:52:00,
2013-11-10 23:53:00,41.9,30.6,29.95,WNW,286,11.0,20.0,64,0.00,,,0.05,Wunderground v.1.15,2013-11-11 04:53:00,
2013-11-10 23:54:00,41.9,30.6,29.95,West,267,7.0,20.0,64,0.00,,,0.05,Wunderground v.1.15,2013-11-11 04:54:00,
2013-11-10 23:55:00,41.8,30.5,29.95,West,272,6.0,20.0,64,0.00,,,0.05,Wunderground v.1.15,2013-11-11 04:55:00,
2013-11-10 23:57:00,41.8,30.5,29.95,NNE,23,2.0,20.0,64,0.00,,,0.05,Wunderground v.1.15,2013-11-11 04:57:00,
2013-11-10 23:58:00,41.8,30.5,29.95,NW,310,14.0,21.0,64,0.00,,,0.05,Wunderground v.1.15,2013-11-11 04:58:00,